FW3681 Weather Reports


Display with metric or nautical units.
time (UTC)temp
F
wind
direction
speed
MPH
gust
MPH
rain 1hr
in
rain 24hr
in
rain mn
in
humidity
%
barometer
mb
20260906151101 86 317 4.0 5.0 0.00 0.65 0.00 77 1013.2
20260906151005 86 333 4.0 5.0 0.00 0.65 0.00 78 1013.3
20260906150901 85 326 3.0 5.0 0.00 0.65 0.00 78 1013.3
20260906150801 85 360 4.0 5.0 0.00 0.65 0.00 78 1013.2
20260906150702 85 333 4.0 5.0 0.00 0.65 0.00 79 1013.2
20260906150601 85 311 4.0 5.0 0.00 0.65 0.00 79 1013.2
20260906150503 85 324 2.0 5.0 0.00 0.65 0.00 79 1013.2
20260906150401 85 345 2.0 5.0 0.00 0.65 0.00 79 1013.3
20260906150300 85 347 5.0 7.0 0.00 0.65 0.00 79 1013.3
20260906150201 85 324 3.0 7.0 0.00 0.65 0.00 78 1013.3
20260906150010 85 321 4.0 7.0 0.00 0.65 0.00 78 1013.3
20260906145900 85 327 4.0 7.0 0.00 0.65 0.00 79 1013.3
20260906145800 85 281 5.0 7.0 0.00 0.65 0.00 79 1013.4
20260906145559 85 288 4.0 7.0 0.00 0.65 0.00 79 1013.4
20260906145300 85 327 4.0 6.0 0.00 0.65 0.00 79 1013.4
20260906145200 85 322 3.0 6.0 0.00 0.65 0.00 79 1013.4
20260906145100 85 300 2.0 6.0 0.00 0.65 0.00 79 1013.3
20260906145004 85 339 4.0 6.0 0.00 0.65 0.00 80 1013.3
20260906144859 84 352 5.0 6.0 0.00 0.65 0.00 80 1013.3
20260906144800 84 336 4.0 6.0 0.00 0.65 0.00 80 1013.4
20260906144600 84 295 3.0 6.0 0.00 0.65 0.00 81 1013.2
20260906144503 84 296 3.0 5.0 0.00 0.65 0.00 81 1013.2
20260906144400 84 336 3.0 5.0 0.00 0.65 0.00 81 1013.1
20260906144301 84 326 4.0 5.0 0.00 0.65 0.00 81 1013.1
20260906144200 84 330 3.0 5.0 0.00 0.65 0.00 81 1013.1
20260906144003 84 352 5.0 5.0 0.00 0.65 0.00 81 1013.1
20260906143900 84 338 4.0 5.0 0.00 0.65 0.00 82 1013.2
20260906143800 84 325 5.0 6.0 0.00 0.65 0.00 82 1013.2
20260906143701 84 322 4.0 6.0 0.00 0.65 0.00 82 1013.2
20260906143600 84 278 3.0 6.0 0.00 0.65 0.00 82 1013.2
20260906143503 84 272 2.0 6.0 0.00 0.65 0.00 82 1013.2
20260906143400 84 275 4.0 6.0 0.00 0.65 0.00 82 1013.2
20260906143201 83 305 4.0 6.0 0.00 0.65 0.00 83 1013.2
20260906143100 83 304 4.0 6.0 0.00 0.65 0.00 83 1013.2
20260906143003 83 345 4.0 6.0 0.00 0.65 0.00 83 1013.2
20260906142900 83 328 4.0 6.0 0.00 0.65 0.00 83 1013.2
20260906142801 83 345 5.0 6.0 0.00 0.65 0.00 83 1013.3
20260906142700 83 347 4.0 6.0 0.00 0.65 0.00 83 1013.3
20260906142600 83 356 6.0 6.0 0.00 0.65 0.00 83 1013.3
20260906142503 83 338 4.0 6.0 0.00 0.65 0.00 83 1013.3
20260906142400 83 319 4.0 6.0 0.00 0.65 0.00 83 1013.3
20260906142259 83 311 4.0 6.0 0.00 0.65 0.00 83 1013.3
20260906142200 83 329 4.0 6.0 0.00 0.65 0.00 83 1013.3
20260906142100 83 322 4.0 6.0 0.00 0.65 0.00 83 1013.4
20260906142003 83 313 5.0 6.0 0.00 0.65 0.00 84 1013.4
20260906141901 83 312 3.0 6.0 0.00 0.65 0.00 83 1013.3
20260906141759 83 320 3.0 6.0 0.00 0.65 0.00 84 1013.4
20260906141559 82 321 3.0 6.0 0.00 0.65 0.00 83 1013.3
20260906141503 83 319 4.0 5.0 0.00 0.65 0.00 84 1013.3
20260906141300 83 322 4.0 5.0 0.00 0.65 0.00 84 1013.3
20260906141200 83 319 4.0 5.0 0.00 0.65 0.00 84 1013.3
20260906141059 82 323 3.0 5.0 0.00 0.65 0.00 85 1013.2
20260906141003 82 327 3.0 5.0 0.00 0.65 0.00 85 1013.2
20260906140800 82 327 4.0 5.0 0.00 0.65 0.00 84 1013.2
20260906140700 82 339 4.0 5.0 0.00 0.65 0.00 85 1013.3
20260906140559 82 316 2.0 5.0 0.00 0.65 0.00 85 1013.2
20260906140502 82 330 4.0 5.0 0.00 0.65 0.00 85 1013.2
20260906140400 82 302 3.0 5.0 0.00 0.65 0.00 86 1013.2
20260906140300 82 317 4.0 5.0 0.00 0.65 0.00 85 1013.1
20260906140159 82 326 3.0 5.0 0.00 0.65 0.00 85 1013.2
20260906140006 82 311 3.0 5.0 0.00 0.65 0.00 86 1013.2
20260906135901 82 324 3.0 4.0 0.00 0.65 0.00 86 1013.2
20260906135801 82 326 3.0 4.0 0.00 0.65 0.00 86 1013.1
20260906135601 81 329 3.0 4.0 0.00 0.65 0.00 86 1013.1
20260906135504 81 357 0.0 4.0 0.00 0.65 0.00 87 1013.2
20260906135401 81 329 2.0 4.0 0.00 0.65 0.00 87 1013.2
20260906135300 81 331 2.0 4.0 0.00 0.65 0.00 87 1013.1
20260906135201 81 299 1.0 4.0 0.00 0.65 0.00 87 1013.1
20260906135101 81 356 3.0 4.0 0.00 0.65 0.00 87 1013.2
20260906135003 81 323 2.0 4.0 0.00 0.65 0.00 88 1013.2
20260906134900 81 307 3.0 4.0 0.00 0.65 0.00 88 1013.2
20260906134801 81 293 2.0 4.0 0.00 0.65 0.00 88 1013.2
20260906134601 81 308 2.0 4.0 0.00 0.65 0.00 89 1013.2
20260906134504 80 295 3.0 4.0 0.00 0.65 0.00 89 1013.2
20260906134402 80 258 2.0 4.0 0.00 0.65 0.00 88 1013.2
20260906134301 80 312 3.0 4.0 0.00 0.65 0.00 88 1013.2
20260906134201 80 282 2.0 4.0 0.00 0.65 0.00 88 1013.2
20260906134101 80 331 0.0 4.0 0.00 0.65 0.00 89 1013.2
20260906134004 80 305 2.0 4.0 0.00 0.65 0.00 89 1013.2
20260906133901 80 304 0.0 4.0 0.00 0.65 0.00 89 1013.3
20260906133800 80 340 2.0 4.0 0.00 0.65 0.00 89 1013.3
20260906133701 80 349 4.0 4.0 0.00 0.65 0.00 89 1013.3
20260906133402 79 25 0.0 4.0 0.00 0.65 0.00 89 1013.4
20260906133300 79 317 0.0 4.0 0.00 0.65 0.00 90 1013.3
20260906133202 79 294 0.0 4.0 0.00 0.65 0.00 90 1013.3
20260906133102 79 286 2.0 4.0 0.00 0.65 0.00 90 1013.3
20260906133004 79 298 2.0 4.0 0.00 0.65 0.00 90 1013.4
20260906132800 79 293 2.0 4.0 0.00 0.65 0.00 90 1013.4
20260906132701 79 297 3.0 4.0 0.00 0.65 0.00 90 1013.4
20260906132601 79 282 3.0 4.0 0.00 0.65 0.00 90 1013.4
20260906132306 79 294 2.0 4.0 0.00 0.65 0.00 91 1013.5
20260906132201 79 287 3.0 4.0 0.00 0.65 0.00 91 1013.5
20260906132101 79 274 3.0 4.0 0.00 0.65 0.00 91 1013.5
20260906132003 79 247 2.0 4.0 0.00 0.65 0.00 91 1013.4
20260906131902 79 275 2.0 4.0 0.00 0.65 0.00 91 1013.4
20260906131700 79 265 0.0 4.0 0.00 0.65 0.00 91 1013.5
20260906131503 79 288 3.0 4.0 0.00 0.65 0.00 92 1013.4
20260906131302 79 282 2.0 4.0 0.00 0.65 0.00 93 1013.5
20260906131200 79 293 2.0 4.0 0.00 0.65 0.00 93 1013.4
20260906131004 78 281 2.0 4.0 0.00 0.65 0.00 93 1013.5
20260906130901 78 281 2.0 4.0 0.00 0.65 0.00 93 1013.6
20260906130700 78 284 2.0 4.0 0.00 0.65 0.00 93 1013.5
20260906130602 78 296 0.0 4.0 0.00 0.65 0.00 93 1013.5
20260906130503 78 296 3.0 4.0 0.00 0.65 0.00 93 1013.5
20260906130401 78 280 2.0 4.0 0.00 0.65 0.00 94 1013.5
20260906130300 78 268 2.0 4.0 0.00 0.65 0.00 93 1013.5
20260906130200 78 279 1.0 4.0 0.00 0.65 0.00 93 1013.5
20260906125900 78 285 3.0 3.0 0.00 0.65 0.00 94 1013.5
20260906125800 78 283 3.0 3.0 0.00 0.65 0.00 94 1013.4
20260906125700 78 295 3.0 3.0 0.00 0.65 0.00 95 1013.4
20260906125559 78 272 2.0 3.0 0.00 0.65 0.00 95 1013.4
20260906125503 78 276 2.0 3.0 0.00 0.65 0.00 95 1013.4
20260906125359 78 281 3.0 3.0 0.00 0.65 0.00 95 1013.3
20260906125301 78 280 0.0 3.0 0.00 0.65 0.00 95 1013.4
20260906125200 78 281 2.0 3.0 0.00 0.65 0.00 95 1013.4
20260906125100 78 279 3.0 3.0 0.00 0.65 0.00 95 1013.3
20260906125003 77 246 2.0 3.0 0.00 0.65 0.00 95 1013.3
20260906124859 77 265 2.0 3.0 0.00 0.65 0.00 95 1013.3
20260906124700 77 307 2.0 3.0 0.00 0.65 0.00 95 1013.2
20260906124559 77 298 2.0 3.0 0.00 0.65 0.00 95 1013.2
20260906124502 77 274 2.0 3.0 0.00 0.65 0.00 95 1013.2
20260906124400 77 286 2.0 3.0 0.00 0.65 0.00 95 1013.2
20260906124300 77 277 3.0 3.0 0.00 0.65 0.00 95 1013.2
20260906124200 77 298 2.0 3.0 0.00 0.65 0.00 95 1013.1
20260906124059 77 302 2.0 3.0 0.00 0.65 0.00 95 1013.2
20260906124003 77 285 2.0 3.0 0.00 0.65 0.00 95 1013.2
20260906123859 77 296 2.0 3.0 0.00 0.65 0.00 95 1013.1
20260906123800 77 282 2.0 3.0 0.00 0.65 0.00 95 1013.2
20260906123659 77 280 3.0 3.0 0.00 0.65 0.00 95 1013.1
20260906123559 77 304 2.0 4.0 0.00 0.65 0.00 95 1013.2
20260906123259 77 287 3.0 4.0 0.00 0.65 0.00 95 1013.1
20260906123200 76 301 3.0 4.0 0.00 0.65 0.00 95 1013.2
20260906123101 76 295 0.0 4.0 0.00 0.65 0.00 95 1013.1
20260906123003 76 296 2.0 4.0 0.00 0.65 0.00 95 1013.1
20260906122901 76 302 3.0 4.0 0.00 0.65 0.00 95 1013.1
20260906122700 76 293 3.0 4.0 0.00 0.65 0.00 95 1013.2
20260906122600 76 288 3.0 3.0 0.00 0.65 0.00 95 1013.2
20260906122502 76 273 3.0 3.0 0.00 0.65 0.00 95 1013.2
20260906122259 76 307 2.0 3.0 0.00 0.65 0.00 95 1013.2
20260906122200 76 319 2.0 3.0 0.00 0.65 0.00 95 1013.2
20260906122059 76 316 3.0 4.0 0.00 0.65 0.00 96 1013.2
20260906122004 76 319 2.0 4.0 0.00 0.65 0.00 95 1013.2
20260906121800 76 316 3.0 4.0 0.00 0.65 0.00 96 1013.2
20260906121700 76 304 2.0 4.0 0.00 0.65 0.00 95 1013.2
20260906121601 76 305 2.0 4.0 0.00 0.65 0.00 96 1013.2
20260906121400 76 323 2.0 4.0 0.00 0.65 0.00 96 1013.2
20260906121259 76 304 2.0 4.0 0.00 0.65 0.00 96 1013.3
20260906121200 76 323 3.0 4.0 0.00 0.65 0.00 96 1013.2
20260906121059 76 300 2.0 4.0 0.00 0.65 0.00 95 1013.2
20260906120900 76 305 3.0 3.0 0.00 0.65 0.00 95 1013.2
20260906120800 76 296 3.0 3.0 0.00 0.65 0.00 95 1013.2
20260906120659 76 311 3.0 3.0 0.00 0.65 0.00 95 1013.2
20260906120600 76 335 1.0 3.0 0.00 0.65 0.00 95 1013.1
20260906120501 76 300 2.0 3.0 0.00 0.65 0.00 95 1013.2
20260906120400 76 321 2.0 3.0 0.00 0.65 0.00 95 1013.2
20260906120300 76 314 2.0 3.0 0.00 0.65 0.00 95 1013.2
20260906120200 76 330 0.0 3.0 0.00 0.65 0.00 95 1013.1
20260906120100 76 285 1.0 3.0 0.00 0.65 0.00 95 1013.2
20260906120003 76 311 2.0 3.0 0.00 0.65 0.00 95 1013.2
20260906115900 76 296 2.0 3.0 0.00 0.65 0.00 95 1013.2
20260906115800 76 309 2.0 3.0 0.00 0.65 0.00 95 1013.1
20260906115659 76 289 2.0 3.0 0.00 0.65 0.00 96 1013.2
20260906115559 76 302 0.0 3.0 0.00 0.65 0.00 95 1013.2
20260906115502 75 287 1.0 3.0 0.00 0.65 0.00 95 1013.2
20260906115359 75 276 2.0 3.0 0.00 0.65 0.00 95 1013.1
20260906115300 75 293 2.0 3.0 0.00 0.65 0.00 95 1013.1
20260906115200 76 294 2.0 3.0 0.00 0.65 0.00 95 1013.2
20260906115100 75 286 2.0 3.0 0.00 0.65 0.00 95 1013.2
20260906115004 75 288 3.0 3.0 0.00 0.65 0.00 96 1013.2
20260906114800 75 295 3.0 3.0 0.00 0.65 0.00 96 1013.2
20260906114700 75 305 2.0 3.0 0.00 0.65 0.00 96 1013.2
20260906114600 75 311 2.0 3.0 0.00 0.65 0.00 96 1013.1
20260906114502 75 307 2.0 3.0 0.00 0.65 0.00 96 1013.1
20260906114401 75 316 1.0 3.0 0.00 0.65 0.00 95 1013.1
20260906114300 75 295 2.0 3.0 0.00 0.65 0.00 96 1013.0
20260906114100 75 284 3.0 3.0 0.00 0.65 0.00 95 1013.1
20260906114003 75 284 2.0 3.0 0.00 0.65 0.00 95 1013.0
20260906113900 75 281 2.0 3.0 0.00 0.65 0.00 96 1013.0
20260906113801 75 300 2.0 3.0 0.00 0.65 0.00 95 1012.9
20260906113701 75 281 2.0 3.0 0.00 0.65 0.00 95 1013.0
20260906113600 75 283 2.0 3.0 0.00 0.65 0.00 95 1012.9
20260906113503 75 278 3.0 3.0 0.00 0.65 0.00 95 1013.0
20260906113359 75 267 3.0 3.0 0.00 0.65 0.00 95 1012.9
20260906113300 75 278 2.0 3.0 0.00 0.65 0.00 95 1012.9
20260906113159 75 280 3.0 3.0 0.00 0.65 0.00 96 1012.9
20260906113059 75 279 2.0 3.0 0.00 0.65 0.00 95 1012.8
20260906113005 75 295 2.0 3.0 0.00 0.65 0.00 95 1012.9
20260906112900 75 307 2.0 3.0 0.00 0.65 0.00 95 1013.0
20260906112800 75 311 2.0 3.0 0.00 0.65 0.00 95 1013.0
20260906112700 75 324 2.0 3.0 0.00 0.65 0.00 95 1012.8
20260906112559 75 294 1.0 3.0 0.00 0.65 0.00 95 1012.9
20260906112502 75 347 3.0 3.0 0.00 0.65 0.00 96 1012.9
20260906112359 75 319 2.0 3.0 0.00 0.65 0.00 95 1013.0
20260906112300 75 295 1.0 3.0 0.00 0.65 0.00 96 1013.0
20260906112200 75 302 2.0 3.0 0.00 0.65 0.00 95 1013.0
20260906112059 75 314 2.0 3.0 0.00 0.65 0.00 95 1013.0
20260906112003 75 281 2.0 3.0 0.00 0.65 0.00 95 1013.0
20260906111900 75 278 2.0 3.0 0.00 0.65 0.00 96 1012.9
20260906111759 75 276 3.0 3.0 0.00 0.65 0.00 95 1012.9
20260906111359 75 309 2.0 3.0 0.00 0.65 0.00 95 1012.8
20260906111300 75 285 2.0 3.0 0.00 0.65 0.00 95 1012.8
20260906111159 75 316 2.0 3.0 0.00 0.65 0.00 95 1012.8
20260906111100 75 290 2.0 3.0 0.00 0.65 0.00 95 1012.8
20260906111004 75 309 2.0 3.0 0.00 0.65 0.00 95 1012.7
20260906110900 75 314 2.0 3.0 0.00 0.65 0.00 95 1012.7
20260906110800 75 330 2.0 3.0 0.00 0.65 0.00 95 1012.7
20260906110659 75 310 2.0 3.0 0.00 0.65 0.00 95 1012.7
20260906110600 75 317 2.0 3.0 0.00 0.65 0.00 95 1012.7
20260906110503 75 300 2.0 3.0 0.00 0.65 0.00 95 1012.7
20260906110400 75 330 3.0 3.0 0.00 0.65 0.00 95 1012.6
20260906110301 75 316 3.0 3.0 0.00 0.65 0.00 95 1012.7
20260906110159 75 321 2.0 3.0 0.00 0.65 0.00 95 1012.6
20260906110100 75 309 2.0 3.0 0.00 0.65 0.00 95 1012.7
20260906110006 75 324 2.0 3.0 0.00 0.65 0.00 95 1012.7
20260906105901 75 295 3.0 3.0 0.00 0.65 0.00 95 1012.7
20260906105801 75 326 2.0 3.0 0.00 0.65 0.00 95 1012.7
20260906105700 75 307 2.0 3.0 0.00 0.65 0.00 95 1012.6
20260906105602 75 302 2.0 3.0 0.00 0.65 0.00 95 1012.6
20260906105503 75 304 2.0 3.0 0.00 0.65 0.00 95 1012.7
20260906105401 75 317 2.0 3.0 0.00 0.65 0.00 95 1012.7
20260906105300 75 333 2.0 3.0 0.00 0.65 0.00 95 1012.7
20260906105200 75 316 2.0 3.0 0.00 0.65 0.00 95 1012.6
20260906105101 75 304 2.0 3.0 0.00 0.65 0.00 95 1012.7
20260906105004 75 319 2.0 3.0 0.00 0.65 0.00 95 1012.7
20260906104901 75 309 2.0 3.0 0.00 0.65 0.00 95 1012.7
20260906104800 75 305 3.0 3.0 0.00 0.65 0.00 95 1012.7
20260906104701 75 319 2.0 3.0 0.00 0.65 0.00 95 1012.7
20260906104503 75 316 2.0 3.0 0.00 0.65 0.00 95 1012.6
20260906104402 75 328 2.0 3.0 0.00 0.65 0.00 95 1012.6
20260906104300 75 316 2.0 3.0 0.00 0.65 0.00 95 1012.5
20260906104201 75 330 2.0 3.0 0.00 0.65 0.00 95 1012.5
20260906104101 75 328 2.0 3.0 0.00 0.65 0.00 95 1012.5
20260906104004 75 319 1.0 3.0 0.00 0.65 0.00 95 1012.5
20260906103901 75 307 1.0 3.0 0.00 0.65 0.00 95 1012.5
20260906103800 75 319 0.0 3.0 0.00 0.65 0.00 95 1012.5
20260906103700 75 293 2.0 3.0 0.00 0.65 0.00 95 1012.5
20260906103600 75 302 0.0 3.0 0.00 0.65 0.00 95 1012.4
20260906103503 75 316 2.0 3.0 0.00 0.65 0.00 95 1012.4
20260906103401 75 323 1.0 3.0 0.00 0.65 0.00 95 1012.3
20260906103301 75 302 1.0 3.0 0.00 0.65 0.00 95 1012.4
20260906103201 75 302 2.0 3.0 0.00 0.65 0.00 95 1012.3
20260906103101 75 312 1.0 3.0 0.00 0.65 0.00 95 1012.3
20260906103005 75 316 2.0 3.0 0.00 0.65 0.00 95 1012.3
20260906102801 75 316 3.0 3.0 0.00 0.65 0.00 95 1012.3
20260906102602 75 311 2.0 3.0 0.00 0.65 0.00 95 1012.3
20260906102503 75 319 2.0 3.0 0.00 0.65 0.00 95 1012.3
20260906102402 75 317 2.0 3.0 0.00 0.65 0.00 95 1012.3
20260906102305 75 326 2.0 3.0 0.00 0.65 0.00 95 1012.4
20260906102200 75 309 2.0 3.0 0.00 0.65 0.00 95 1012.3
20260906102100 75 311 2.0 3.0 0.00 0.65 0.00 95 1012.3
20260906102005 75 319 1.0 3.0 0.00 0.65 0.00 95 1012.3
20260906101900 75 314 2.0 3.0 0.00 0.65 0.00 95 1012.4
20260906101801 75 321 2.0 3.0 0.00 0.65 0.00 95 1012.3
20260906101701 75 284 2.0 3.0 0.00 0.65 0.00 95 1012.3
20260906101600 75 305 2.0 3.0 0.00 0.65 0.00 95 1012.3
20260906101503 75 297 3.0 3.0 0.00 0.65 0.00 95 1012.3
20260906101400 75 300 2.0 3.0 0.00 0.65 0.00 95 1012.2
20260906101301 75 287 1.0 3.0 0.00 0.65 0.00 95 1012.2
20260906100900 75 295 2.0 3.0 0.00 0.65 0.00 95 1012.2
20260906100701 75 311 1.0 3.0 0.00 0.65 0.00 95 1012.1
20260906100600 75 309 2.0 3.0 0.00 0.65 0.00 95 1012.2
20260906100504 75 295 2.0 3.0 0.00 0.65 0.00 95 1012.1
20260906100400 75 281 3.0 3.0 0.00 0.65 0.00 95 1012.2
20260906100300 75 280 2.0 3.0 0.00 0.65 0.00 95 1012.1
20260906100003 75 295 2.0 3.0 0.00 0.65 0.00 95 1012.1
20260906095800 75 285 3.0 3.0 0.00 0.65 0.00 95 1012.2
20260906095600 75 293 2.0 3.0 0.00 0.65 0.00 95 1012.2
20260906095503 75 311 2.0 3.0 0.00 0.65 0.00 95 1012.1
20260906095200 75 305 3.0 3.0 0.00 0.65 0.00 95 1012.1
20260906095100 75 286 2.0 3.0 0.00 0.65 0.00 95 1012.0
20260906094859 75 296 2.0 3.0 0.00 0.65 0.00 95 1012.0
20260906094800 75 303 2.0 3.0 0.00 0.65 0.00 95 1012.0
20260906094701 75 314 3.0 3.0 0.00 0.65 0.00 94 1011.9
20260906094559 75 316 2.0 3.0 0.00 0.65 0.00 94 1011.9
20260906094504 75 307 2.0 3.0 0.00 0.65 0.00 94 1011.9
20260906094300 75 309 2.0 3.0 0.00 0.65 0.00 94 1011.9
20260906094159 75 302 3.0 3.0 0.00 0.65 0.00 94 1011.9
20260906094059 75 288 2.0 3.0 0.00 0.65 0.00 94 1011.9
20260906094003 75 296 2.0 3.0 0.00 0.65 0.00 94 1011.8
20260906093800 75 307 1.0 3.0 0.00 0.65 0.00 94 1011.9
20260906093700 75 316 2.0 3.0 0.00 0.65 0.00 94 1012.0
20260906093559 75 302 2.0 3.0 0.00 0.65 0.00 94 1011.9
20260906093502 75 293 2.0 3.0 0.00 0.65 0.00 94 1011.9
20260906093400 75 302 1.0 3.0 0.00 0.65 0.00 94 1011.9
20260906093259 75 319 2.0 3.0 0.00 0.65 0.00 94 1012.0
20260906093201 75 302 0.0 3.0 0.00 0.65 0.00 94 1011.8
20260906093004 75 295 2.0 3.0 0.00 0.65 0.00 94 1011.9
20260906092900 75 309 2.0 3.0 0.00 0.65 0.00 94 1011.9
20260906092800 75 314 2.0 3.0 0.00 0.65 0.00 94 1011.9
20260906092700 75 316 3.0 3.0 0.00 0.65 0.00 94 1011.9
20260906092601 75 302 3.0 3.0 0.00 0.65 0.00 94 1011.8
20260906092502 75 295 3.0 3.0 0.00 0.65 0.00 94 1011.8
20260906092300 75 314 2.0 3.0 0.00 0.65 0.00 94 1011.9
20260906092200 75 302 2.0 3.0 0.00 0.65 0.00 94 1011.8
20260906092100 75 312 2.0 3.0 0.00 0.65 0.00 94 1011.9
20260906092003 75 303 2.0 3.0 0.00 0.65 0.00 94 1011.9
20260906091759 75 295 3.0 3.0 0.00 0.65 0.00 94 1011.9
20260906091700 75 317 1.0 3.0 0.00 0.65 0.00 94 1011.9
20260906091600 75 316 1.0 3.0 0.00 0.65 0.00 94 1011.9
20260906091503 75 321 0.0 3.0 0.00 0.65 0.00 94 1011.9
20260906091359 75 316 2.0 3.0 0.00 0.65 0.00 94 1011.8
20260906091300 75 312 1.0 3.0 0.00 0.65 0.00 94 1011.9
20260906091200 75 298 1.0 3.0 0.00 0.65 0.00 94 1011.8
20260906091100 75 295 2.0 3.0 0.00 0.65 0.00 94 1011.8
20260906091003 75 295 2.0 2.0 0.00 0.65 0.00 94 1011.8
20260906090900 75 321 1.0 2.0 0.00 0.65 0.00 94 1011.8
20260906090800 75 324 2.0 2.0 0.00 0.65 0.00 94 1011.8
20260906090700 75 311 1.0 2.0 0.00 0.65 0.00 94 1011.8
20260906090559 75 326 2.0 2.0 0.00 0.65 0.00 94 1011.8
20260906090503 75 326 2.0 2.0 0.00 0.65 0.00 94 1011.8
20260906090400 75 314 1.0 3.0 0.00 0.65 0.00 94 1011.8
20260906090300 75 328 0.0 3.0 0.00 0.65 0.00 94 1011.8
20260906090159 75 323 2.0 3.0 0.00 0.65 0.00 94 1011.8
20260906090059 75 285 0.0 3.0 0.00 0.65 0.00 93 1011.7
20260906090004 75 316 1.0 3.0 0.00 0.65 0.00 93 1011.8
20260906085901 75 316 0.0 3.0 0.00 0.65 0.00 94 1011.8
20260906085800 75 307 2.0 3.0 0.00 0.65 0.00 94 1011.8
20260906085600 75 286 2.0 3.0 0.00 0.65 0.00 94 1011.8
20260906085503 75 283 2.0 3.0 0.00 0.65 0.00 93 1011.8
20260906085400 75 293 2.0 3.0 0.00 0.65 0.00 93 1011.9
20260906085300 75 288 1.0 3.0 0.00 0.65 0.00 93 1011.9
20260906085059 75 326 1.0 3.0 0.00 0.65 0.00 93 1011.8
20260906085003 75 312 3.0 3.0 0.00 0.65 0.00 93 1011.8
20260906084859 75 310 2.0 3.0 0.00 0.65 0.00 93 1011.8
20260906084700 75 307 2.0 3.0 0.00 0.65 0.00 93 1011.7
20260906084600 75 324 2.0 3.0 0.00 0.65 0.00 93 1011.7
20260906084502 75 323 2.0 3.0 0.00 0.65 0.00 93 1011.7
20260906084359 75 321 2.0 2.0 0.00 0.65 0.00 93 1011.6
20260906084259 75 311 2.0 3.0 0.00 0.65 0.00 93 1011.7
20260906084200 75 309 1.0 3.0 0.00 0.65 0.00 93 1011.6
20260906084100 75 307 1.0 3.0 0.00 0.65 0.00 93 1011.6
20260906084003 75 319 1.0 3.0 0.00 0.65 0.00 93 1011.7
20260906083900 75 323 1.0 3.0 0.00 0.65 0.00 93 1011.7
20260906083800 75 312 2.0 3.0 0.00 0.65 0.00 93 1011.7
20260906083700 75 311 1.0 3.0 0.00 0.65 0.00 93 1011.7
20260906083600 75 321 2.0 3.0 0.00 0.65 0.00 93 1011.7
20260906083502 75 328 1.0 3.0 0.00 0.65 0.00 93 1011.7
20260906083400 75 296 1.0 2.0 0.00 0.65 0.00 93 1011.7
20260906083259 75 333 0.0 3.0 0.00 0.65 0.00 93 1011.7
20260906083159 75 328 1.0 3.0 0.00 0.65 0.00 93 1011.7
20260906083003 75 309 1.0 3.0 0.00 0.65 0.00 93 1011.7
20260906082900 75 326 2.0 3.0 0.00 0.65 0.00 93 1011.7
20260906082802 75 309 2.0 3.0 0.00 0.65 0.00 93 1011.7
20260906082700 75 307 1.0 3.0 0.00 0.65 0.00 93 1011.7
20260906082559 75 303 0.0 3.0 0.00 0.65 0.00 93 1011.7
20260906082501 75 296 2.0 3.0 0.00 0.65 0.00 93 1011.7
20260906082359 75 307 1.0 2.0 0.00 0.65 0.00 92 1011.6
20260906082259 75 307 1.0 2.0 0.00 0.65 0.00 92 1011.6
20260906082200 75 317 0.0 2.0 0.00 0.65 0.00 92 1011.6
20260906082059 75 291 0.0 3.0 0.00 0.65 0.00 92 1011.6
20260906082004 75 310 1.0 3.0 0.00 0.65 0.00 92 1011.5
20260906081859 75 323 2.0 3.0 0.00 0.65 0.00 92 1011.5
20260906081800 75 326 0.0 3.0 0.00 0.65 0.00 92 1011.6
20260906081659 75 312 2.0 3.0 0.00 0.65 0.00 92 1011.6
20260906081559 75 309 1.0 3.0 0.00 0.65 0.00 92 1011.6
20260906081400 75 307 2.0 3.0 0.00 0.65 0.00 92 1011.7
20260906081259 75 300 2.0 3.0 0.00 0.65 0.00 92 1011.6
20260906081201 76 314 2.0 3.0 0.00 0.65 0.00 92 1011.6
20260906081100 75 309 2.0 3.0 0.00 0.65 0.00 92 1011.7
20260906081004 76 307 1.0 3.0 0.00 0.65 0.00 92 1011.7
20260906080759 75 297 2.0 3.0 0.00 0.65 0.00 92 1011.7
20260906080600 76 307 2.0 3.0 0.00 0.65 0.00 92 1011.6
20260906080502 76 296 2.0 3.0 0.00 0.65 0.00 92 1011.6
20260906080400 76 321 2.0 3.0 0.00 0.65 0.00 92 1011.6
20260906080300 76 296 2.0 3.0 0.00 0.65 0.00 92 1011.7
20260906080200 76 294 0.0 2.0 0.00 0.65 0.00 92 1011.6
20260906080100 76 319 1.0 2.0 0.00 0.65 0.00 92 1011.7
20260906080003 76 314 2.0 2.0 0.00 0.65 0.00 92 1011.7
20260906075900 76 300 1.0 2.0 0.00 0.65 0.00 92 1011.7
20260906075800 76 328 1.0 3.0 0.00 0.65 0.00 92 1011.7
20260906075659 76 324 1.0 3.0 0.00 0.65 0.00 92 1011.7
20260906075600 76 307 0.0 3.0 0.00 0.65 0.00 92 1011.8
20260906075400 76 312 1.0 3.0 0.00 0.65 0.00 91 1011.8
20260906075259 76 302 1.0 3.0 0.00 0.65 0.00 91 1011.7
20260906075200 76 314 1.0 3.0 0.00 0.65 0.00 92 1011.7
20260906075100 76 321 0.0 3.0 0.00 0.65 0.00 91 1011.8
20260906074900 76 294 2.0 3.0 0.00 0.65 0.00 92 1011.7
20260906074700 76 303 2.0 3.0 0.00 0.65 0.00 92 1011.7
20260906074559 76 305 1.0 3.0 0.00 0.65 0.00 91 1011.8
20260906074503 76 324 2.0 3.0 0.00 0.65 0.00 91 1011.7
20260906074200 76 324 2.0 2.0 0.00 0.65 0.00 91 1011.9
20260906074100 76 326 1.0 3.0 0.00 0.65 0.00 91 1011.8
20260906074003 76 309 0.0 3.0 0.00 0.65 0.00 91 1011.8
20260906073900 76 295 0.0 3.0 0.00 0.65 0.00 91 1011.8
20260906073700 76 310 0.0 3.0 0.00 0.65 0.00 91 1011.8
20260906073559 76 316 2.0 3.0 0.00 0.65 0.00 91 1011.8
20260906073500 76 321 2.0 3.0 0.00 0.65 0.00 91 1011.7
20260906073359 76 323 1.0 3.0 0.00 0.65 0.00 91 1011.8
20260906073300 76 304 2.0 3.0 0.00 0.65 0.00 91 1011.8
20260906073200 76 280 2.0 3.0 0.00 0.65 0.00 91 1011.9
20260906073100 76 302 2.0 3.0 0.00 0.65 0.00 91 1011.8
20260906073003 76 297 2.0 3.0 0.00 0.65 0.00 91 1011.9
20260906072900 76 302 2.0 3.0 0.00 0.65 0.00 91 1011.9
20260906072759 76 316 2.0 3.0 0.00 0.65 0.00 91 1011.9
20260906072701 76 314 2.0 3.0 0.00 0.65 0.00 91 1011.9
20260906072600 76 311 2.0 3.0 0.00 0.65 0.00 91 1011.9
20260906072259 76 321 2.0 3.0 0.00 0.65 0.00 91 1011.8
20260906072200 76 290 3.0 3.0 0.00 0.65 0.00 91 1011.8
20260906072059 76 316 2.0 3.0 0.00 0.65 0.00 91 1011.8
20260906072003 76 309 2.0 3.0 0.00 0.65 0.00 91 1011.8
20260906071900 76 323 2.0 3.0 0.00 0.65 0.00 91 1011.8
20260906071800 76 314 2.0 3.0 0.00 0.65 0.00 91 1011.8
20260906071700 76 307 2.0 3.0 0.00 0.65 0.00 91 1011.7
20260906071600 76 307 3.0 3.0 0.00 0.65 0.00 91 1011.8
20260906071400 76 316 2.0 3.0 0.00 0.65 0.00 91 1011.8
20260906071159 76 287 3.0 3.0 0.00 0.65 0.00 91 1011.7
20260906071100 76 281 3.0 3.0 0.00 0.65 0.00 91 1011.7
20260906071004 76 279 1.0 3.0 0.00 0.65 0.00 91 1011.8
20260906070900 76 309 1.0 3.0 0.00 0.65 0.00 91 1011.8
20260906070759 76 302 2.0 3.0 0.00 0.65 0.00 91 1011.8
20260906070700 76 295 2.0 3.0 0.00 0.65 0.00 91 1011.8
20260906070600 76 307 2.0 3.0 0.00 0.65 0.00 91 1011.8
20260906070501 76 319 2.0 3.0 0.00 0.65 0.00 91 1011.9
20260906070300 76 293 3.0 3.0 0.00 0.65 0.00 91 1011.9
20260906070159 76 305 2.0 3.0 0.00 0.65 0.00 91 1011.9
20260906065858 76 307 0.0 3.0 0.00 0.65 0.00 91 1011.8
20260906065758 76 316 2.0 3.0 0.00 0.65 0.00 91 1011.8
20260906065659 76 319 2.0 3.0 0.00 0.65 0.00 91 1011.8
20260906065559 76 304 2.0 3.0 0.00 0.65 0.00 91 1011.8
20260906065500 76 303 2.0 3.0 0.00 0.65 0.00 91 1011.8
20260906065358 76 310 0.0 3.0 0.00 0.65 0.00 91 1011.8
20260906065259 76 287 1.0 3.0 0.00 0.65 0.00 91 1011.9
20260906065159 76 295 2.0 3.0 0.00 0.65 0.00 91 1011.8
20260906065003 76 311 1.0 3.0 0.00 0.65 0.00 91 1011.9
20260906064859 76 333 1.0 3.0 0.00 0.65 0.00 91 1011.9
20260906064800 76 305 2.0 3.0 0.00 0.65 0.00 91 1011.9
20260906064659 76 302 2.0 3.0 0.00 0.65 0.00 91 1011.9
20260906064558 76 300 2.0 3.0 0.00 0.65 0.00 91 1011.9
20260906064500 76 309 3.0 3.0 0.00 0.65 0.00 91 1011.9
20260906064358 76 314 2.0 3.0 0.00 0.65 0.00 91 1011.9
20260906064258 76 316 2.0 3.0 0.00 0.65 0.00 91 1011.9
20260906064159 76 328 2.0 3.0 0.00 0.65 0.00 91 1011.9
20260906064059 76 330 2.0 3.0 0.00 0.65 0.00 90 1011.9
20260906064002 76 328 3.0 3.0 0.00 0.65 0.00 90 1012.0
20260906063900 76 321 3.0 3.0 0.00 0.65 0.00 90 1012.0
20260906063657 76 314 2.0 3.0 0.00 0.65 0.00 90 1012.0
20260906063500 76 317 2.0 3.0 0.00 0.65 0.00 90 1012.1
20260906063358 76 324 2.0 3.0 0.00 0.65 0.00 90 1012.1
20260906063258 76 317 2.0 3.0 0.00 0.65 0.00 90 1012.0
20260906063059 76 319 2.0 3.0 0.00 0.65 0.00 90 1011.9
20260906063003 76 347 2.0 3.0 0.00 0.65 0.00 90 1011.9
20260906062859 76 317 1.0 3.0 0.00 0.65 0.00 90 1011.9
20260906062759 76 317 0.0 3.0 0.00 0.65 0.00 90 1011.9
20260906062659 76 302 1.0 3.0 0.00 0.65 0.00 90 1011.9
20260906062559 76 288 2.0 3.0 0.00 0.65 0.00 90 1011.9
20260906062500 76 314 2.0 3.0 0.00 0.65 0.00 90 1011.9
20260906062359 76 309 2.0 3.0 0.00 0.65 0.00 90 1011.9
20260906062259 76 345 2.0 3.0 0.00 0.65 0.00 90 1012.0
20260906062159 76 340 2.0 3.0 0.00 0.65 0.00 90 1012.0
20260906062059 76 324 1.0 3.0 0.00 0.65 0.00 90 1012.0
20260906062003 76 307 2.0 3.0 0.00 0.65 0.00 90 1012.0
20260906061858 76 305 2.0 3.0 0.00 0.65 0.00 90 1012.0
20260906061758 76 314 2.0 3.0 0.00 0.65 0.00 90 1012.0
20260906061658 76 302 1.0 3.0 0.00 0.65 0.00 90 1012.0
20260906061558 76 316 1.0 3.0 0.00 0.65 0.00 90 1012.0
20260906061501 76 288 3.0 3.0 0.00 0.65 0.00 90 1012.0
20260906061359 76 305 2.0 3.0 0.00 0.65 0.00 90 1012.0
20260906061259 76 307 1.0 3.0 0.00 0.65 0.00 90 1012.0
20260906061158 76 310 2.0 3.0 0.00 0.65 0.00 90 1012.0
20260906061002 76 310 2.0 3.0 0.00 0.65 0.00 90 1012.0
20260906060858 76 300 2.0 3.0 0.00 0.65 0.00 90 1012.0
20260906060759 76 309 1.0 3.0 0.00 0.65 0.00 90 1012.0
20260906060659 76 314 2.0 3.0 0.00 0.65 0.00 90 1012.0
20260906060558 76 321 2.0 3.0 0.00 0.65 0.00 90 1011.9
20260906060500 76 333 0.0 2.0 0.00 0.65 0.00 90 1011.9
20260906060358 76 331 2.0 2.0 0.00 0.65 0.00 90 1012.0
20260906060258 76 333 0.0 2.0 0.00 0.65 0.00 90 1011.9
20260906060158 76 284 0.0 2.0 0.00 0.65 0.00 90 1011.9
20260906060057 76 307 1.0 2.0 0.00 0.65 0.00 90 1011.9
20260906060008 76 295 0.0 2.0 0.00 0.65 0.00 90 1011.9
20260906055902 76 280 0.0 2.0 0.00 0.65 0.00 90 1011.9
20260906055802 76 241 0.0 3.0 0.00 0.65 0.00 90 1011.9
20260906055702 76 304 0.0 3.0 0.00 0.65 0.00 90 1012.0
20260906055601 76 304 0.0 3.0 0.00 0.65 0.00 90 1012.0
20260906055505 76 314 0.0 3.0 0.00 0.65 0.00 90 1012.0
20260906055306 76 311 2.0 3.0 0.00 0.65 0.00 90 1012.1
20260906055201 76 333 0.0 3.0 0.00 0.65 0.00 89 1012.1
20260906055101 76 307 2.0 3.0 0.00 0.65 0.00 89 1012.2
20260906055005 76 314 1.0 3.0 0.00 0.65 0.00 89 1012.3
20260906054902 76 308 2.0 3.0 0.00 0.65 0.00 89 1012.3
20260906054802 76 319 2.0 3.0 0.00 0.65 0.00 89 1012.3
20260906054702 76 297 2.0 3.0 0.00 0.65 0.00 89 1012.3
20260906054601 76 317 2.0 3.0 0.00 0.65 0.00 89 1012.3
20260906054503 76 305 2.0 3.0 0.00 0.65 0.00 89 1012.3
20260906054402 76 280 2.0 3.0 0.00 0.65 0.00 89 1012.3
20260906054301 77 295 2.0 3.0 0.00 0.65 0.00 89 1012.3
20260906054202 76 287 0.0 3.0 0.00 0.65 0.00 89 1012.4
20260906054102 77 285 2.0 3.0 0.00 0.65 0.00 89 1012.5
20260906054005 76 288 2.0 3.0 0.00 0.65 0.00 89 1012.5
20260906053901 77 314 2.0 3.0 0.00 0.65 0.00 89 1012.5
20260906053802 77 296 2.0 3.0 0.00 0.65 0.00 89 1012.4
20260906053702 77 321 2.0 3.0 0.00 0.65 0.00 89 1012.4
20260906053602 77 328 2.0 3.0 0.00 0.65 0.00 89 1012.4
20260906053402 77 323 2.0 3.0 0.00 0.65 0.00 89 1012.4
20260906053302 77 312 2.0 3.0 0.00 0.65 0.00 89 1012.4
20260906053201 77 311 2.0 3.0 0.00 0.65 0.00 89 1012.4
20260906053102 77 319 2.0 3.0 0.00 0.65 0.00 89 1012.4
20260906053004 77 300 3.0 3.0 0.00 0.65 0.00 89 1012.4
20260906052902 77 326 2.0 3.0 0.00 0.65 0.00 89 1012.4
20260906052802 77 309 2.0 3.0 0.00 0.65 0.00 89 1012.4
20260906052701 77 311 3.0 3.0 0.00 0.65 0.00 89 1012.4
20260906052602 77 312 2.0 3.0 0.00 0.65 0.00 89 1012.4
20260906052504 77 316 3.0 3.0 0.00 0.65 0.00 89 1012.3
20260906052402 77 314 2.0 3.0 0.00 0.65 0.00 89 1012.3
20260906052305 76 326 2.0 3.0 0.00 0.65 0.00 89 1012.3
20260906052201 76 326 2.0 3.0 0.00 0.65 0.00 89 1012.3
20260906052102 76 317 3.0 3.0 0.00 0.65 0.00 89 1012.3
20260906052006 76 311 2.0 3.0 0.00 0.65 0.00 89 1012.3
20260906051902 76 302 1.0 3.0 0.00 0.65 0.00 89 1012.3
20260906051800 76 302 1.0 3.0 0.00 0.65 0.00 89 1012.4
20260906051702 76 302 2.0 3.0 0.00 0.65 0.00 89 1012.4
20260906051602 76 307 1.0 3.0 0.00 0.65 0.00 89 1012.4
20260906051504 76 304 2.0 3.0 0.00 0.65 0.00 89 1012.5
20260906051402 76 309 2.0 3.0 0.00 0.65 0.00 89 1012.5
20260906051301 76 326 2.0 3.0 0.00 0.65 0.00 89 1012.5
20260906051204 76 338 2.0 3.0 0.00 0.65 0.00 89 1012.5
20260906051102 76 312 1.0 3.0 0.00 0.65 0.00 89 1012.5
20260906051005 76 305 2.0 3.0 0.00 0.65 0.00 89 1012.4
20260906050901 76 307 2.0 3.0 0.00 0.65 0.00 89 1012.5
20260906050701 76 309 2.0 3.0 0.00 0.65 0.00 89 1012.4
20260906050601 76 295 2.0 3.0 0.00 0.65 0.00 89 1012.4
20260906050504 76 295 2.0 3.0 0.00 0.65 0.00 89 1012.4
20260906050302 76 309 1.0 3.0 0.00 0.65 0.00 89 1012.4
20260906050201 76 311 2.0 3.0 0.00 0.65 0.00 89 1012.5
20260906045902 76 328 1.0 2.0 0.00 0.65 0.65 89 1012.3
20260906045802 76 326 2.0 2.0 0.00 0.65 0.65 89 1012.3
20260906045702 76 307 2.0 2.0 0.00 0.65 0.65 89 1012.3
20260906045602 76 319 2.0 3.0 0.00 0.65 0.65 88 1012.3
20260906045502 76 331 0.0 3.0 0.00 0.65 0.65 88 1012.4
20260906045400 76 309 2.0 3.0 0.00 0.65 0.65 88 1012.4
20260906045305 76 302 0.0 3.0 0.00 0.65 0.65 88 1012.4
20260906045203 76 303 1.0 3.0 0.00 0.65 0.65 88 1012.4
20260906045100 76 293 0.0 3.0 0.00 0.65 0.65 88 1012.4
20260906045006 76 302 0.0 3.0 0.00 0.65 0.65 88 1012.4
20260906044901 76 295 1.0 3.0 0.00 0.65 0.65 88 1012.4
20260906044801 76 316 0.0 3.0 0.00 0.65 0.65 88 1012.4
20260906044702 76 316 1.0 3.0 0.00 0.65 0.65 88 1012.4
20260906044603 76 305 2.0 3.0 0.00 0.65 0.65 88 1012.5
20260906044401 76 300 2.0 3.0 0.00 0.65 0.65 88 1012.4
20260906044102 76 302 2.0 3.0 0.00 0.65 0.65 88 1012.5
20260906044005 76 278 0.0 3.0 0.00 0.65 0.65 88 1012.5
20260906043901 77 293 1.0 3.0 0.00 0.65 0.65 88 1012.5
20260906043801 77 305 1.0 3.0 0.00 0.65 0.65 88 1012.5
20260906043503 77 298 2.0 3.0 0.00 0.65 0.65 88 1012.5
20260906043402 77 283 3.0 3.0 0.00 0.65 0.65 88 1012.5
20260906043201 77 326 2.0 3.0 0.00 0.65 0.65 88 1012.5
20260906043101 76 307 2.0 3.0 0.00 0.65 0.65 88 1012.5
20260906043008 76 319 2.0 3.0 0.00 0.65 0.65 88 1012.5
20260906042901 76 349 2.0 3.0 0.00 0.65 0.65 88 1012.5
20260906042804 76 333 2.0 3.0 0.00 0.65 0.65 88 1012.5
20260906042701 76 330 1.0 3.0 0.00 0.65 0.65 88 1012.5
20260906042601 77 317 2.0 3.0 0.00 0.65 0.65 88 1012.6
20260906042504 76 323 2.0 3.0 0.00 0.65 0.65 88 1012.6
20260906042402 76 316 2.0 3.0 0.00 0.65 0.65 88 1012.6
20260906042201 76 340 1.0 3.0 0.00 0.65 0.65 88 1012.6
20260906042101 76 319 1.0 3.0 0.00 0.65 0.65 88 1012.6
20260906041801 76 312 2.0 3.0 0.00 0.65 0.65 88 1012.6
20260906041702 77 333 2.0 3.0 0.00 0.65 0.65 88 1012.5
20260906041602 76 311 2.0 3.0 0.00 0.65 0.65 88 1012.5
20260906041504 76 316 3.0 3.0 0.00 0.65 0.65 88 1012.5
20260906041402 76 312 2.0 3.0 0.00 0.65 0.65 88 1012.5
20260906041301 76 323 2.0 3.0 0.00 0.65 0.65 87 1012.5
20260906041101 77 293 1.0 3.0 0.00 0.65 0.65 87 1012.4
20260906041004 77 295 2.0 3.0 0.00 0.65 0.65 87 1012.5
20260906040903 77 285 0.0 3.0 0.00 0.65 0.65 87 1012.6
20260906040703 77 280 0.0 3.0 0.00 0.65 0.65 87 1012.6
20260906040601 77 270 2.0 3.0 0.00 0.65 0.65 87 1012.6
20260906040504 77 261 0.0 3.0 0.00 0.65 0.65 87 1012.6
20260906040403 77 272 1.0 3.0 0.00 0.65 0.65 87 1012.6
20260906040302 77 309 2.0 3.0 0.00 0.65 0.65 87 1012.7
20260906040201 77 286 3.0 3.0 0.00 0.65 0.65 87 1012.7
20260906040005 77 316 2.0 3.0 0.00 0.65 0.65 87 1012.7
20260906035901 77 297 2.0 2.0 0.00 0.65 0.65 87 1012.6
20260906035801 77 323 1.0 2.0 0.00 0.65 0.65 87 1012.6
20260906035702 77 314 1.0 2.0 0.00 0.65 0.65 87 1012.6
20260906035602 77 302 0.0 3.0 0.00 0.65 0.65 87 1012.6
20260906035504 77 304 0.0 3.0 0.00 0.65 0.65 87 1012.6
20260906035403 77 317 0.0 3.0 0.00 0.65 0.65 87 1012.6
20260906035305 77 309 0.0 3.0 0.00 0.65 0.65 87 1012.7
20260906035203 77 312 0.0 3.0 0.00 0.65 0.65 87 1012.6
20260906035102 77 295 2.0 3.0 0.00 0.65 0.65 87 1012.8
20260906035004 77 314 0.0 3.0 0.00 0.65 0.65 87 1012.8
20260906034902 77 296 2.0 3.0 0.00 0.65 0.65 87 1012.8
20260906034701 77 314 2.0 3.0 0.00 0.65 0.65 87 1012.9
20260906034601 77 300 2.0 3.0 0.00 0.65 0.65 87 1012.9
20260906034504 77 295 2.0 3.0 0.00 0.65 0.65 87 1013.0
20260906034302 77 310 2.0 3.0 0.00 0.65 0.65 87 1012.8
20260906034202 77 300 2.0 3.0 0.00 0.65 0.65 87 1012.9
20260906034101 77 314 2.0 3.0 0.00 0.65 0.65 87 1013.0
20260906034005 77 305 2.0 3.0 0.00 0.65 0.65 87 1013.0
20260906033902 77 312 3.0 3.0 0.00 0.65 0.65 87 1013.0
20260906033802 77 323 2.0 3.0 0.00 0.65 0.65 87 1013.0
20260906033702 77 324 2.0 3.0 0.00 0.65 0.65 87 1012.9
20260906033601 77 309 2.0 3.0 0.00 0.65 0.65 87 1013.0
20260906033504 77 319 3.0 3.0 0.00 0.65 0.65 87 1013.0
20260906033301 77 342 2.0 3.0 0.00 0.65 0.65 87 1012.9
20260906033202 77 321 2.0 3.0 0.00 0.65 0.65 87 1013.0
20260906033101 77 340 2.0 3.0 0.00 0.65 0.65 87 1013.0
20260906033004 77 329 2.0 3.0 0.00 0.65 0.65 87 1013.0
20260906032901 77 317 2.0 3.0 0.00 0.65 0.65 87 1013.0
20260906032803 77 307 2.0 3.0 0.00 0.65 0.65 87 1013.1
20260906032702 77 300 2.0 3.0 0.00 0.65 0.65 88 1013.0
20260906032602 77 311 2.0 3.0 0.00 0.65 0.65 88 1013.0
20260906032504 77 319 2.0 3.0 0.00 0.65 0.65 88 1013.0
20260906032402 77 309 2.0 3.0 0.00 0.65 0.65 88 1013.1
20260906032305 77 314 2.0 2.0 0.00 0.65 0.65 88 1013.1
20260906032103 77 295 2.0 3.0 0.00 0.65 0.65 88 1013.1
20260906032005 77 323 2.0 3.0 0.00 0.65 0.65 88 1013.1
20260906031803 77 326 0.0 3.0 0.00 0.65 0.65 88 1013.1
20260906031701 77 288 1.0 3.0 0.00 0.65 0.65 88 1013.1
20260906031602 77 311 0.0 3.0 0.00 0.65 0.65 88 1013.2
20260906031302 77 316 1.0 3.0 0.00 0.65 0.65 88 1013.2
20260906031201 78 317 0.0 3.0 0.00 0.65 0.65 88 1013.2
20260906031004 78 302 1.0 3.0 0.00 0.65 0.65 88 1013.2
20260906030901 77 312 2.0 3.0 0.00 0.65 0.65 88 1013.3
20260906030802 77 301 1.0 3.0 0.00 0.65 0.65 88 1013.3
20260906030701 77 307 1.0 3.0 0.00 0.65 0.65 88 1013.3
20260906030603 77 330 1.0 3.0 0.00 0.65 0.65 88 1013.2
20260906030503 77 319 2.0 3.0 0.00 0.65 0.65 88 1013.3
20260906030401 77 321 2.0 3.0 0.00 0.65 0.65 88 1013.2
20260906030302 77 328 2.0 3.0 0.00 0.65 0.65 88 1013.2
20260906030203 78 303 2.0 3.0 0.00 0.65 0.65 88 1013.2
20260906030007 77 314 1.0 3.0 0.00 0.65 0.65 88 1013.1
20260906025902 77 321 2.0 3.0 0.00 0.65 0.65 88 1013.1
20260906025801 77 330 2.0 3.0 0.00 0.65 0.65 88 1013.1
20260906025703 78 326 2.0 3.0 0.00 0.65 0.65 88 1013.1
20260906025602 78 309 2.0 3.0 0.00 0.65 0.65 89 1013.1
20260906025504 78 307 2.0 3.0 0.00 0.65 0.65 89 1013.0
20260906025402 78 302 2.0 3.0 0.00 0.65 0.65 89 1013.0
20260906025306 78 297 2.0 3.0 0.00 0.65 0.65 89 1013.0
20260906025203 78 295 2.0 3.0 0.00 0.65 0.65 89 1013.0
20260906025102 78 305 2.0 3.0 0.00 0.65 0.65 89 1012.9
20260906024903 78 323 0.0 3.0 0.00 0.65 0.65 89 1012.8
20260906024800 78 309 1.0 3.0 0.00 0.65 0.65 89 1012.7
20260906024701 78 303 2.0 3.0 0.00 0.65 0.65 89 1012.7
20260906024602 78 337 0.0 3.0 0.00 0.65 0.65 89 1012.8
20260906024504 78 312 1.0 3.0 0.00 0.65 0.65 89 1012.8
20260906024301 78 287 2.0 3.0 0.00 0.65 0.65 89 1012.8
20260906024202 78 302 2.0 3.0 0.00 0.65 0.65 89 1012.8
20260906024004 78 296 2.0 3.0 0.00 0.65 0.65 89 1012.9
20260906023903 78 307 2.0 3.0 0.00 0.65 0.65 89 1013.0
20260906023802 78 293 2.0 3.0 0.00 0.65 0.65 89 1013.1
20260906023702 78 286 2.0 3.0 0.00 0.65 0.65 89 1012.9
20260906023602 78 295 2.0 3.0 0.00 0.65 0.65 89 1013.0
20260906023402 78 289 2.0 3.0 0.00 0.65 0.65 89 1013.0
20260906023301 78 302 1.0 3.0 0.00 0.65 0.65 89 1013.0
20260906023102 78 319 2.0 3.0 0.00 0.65 0.65 89 1012.9
20260906023004 78 310 2.0 3.0 0.00 0.65 0.65 89 1012.8
20260906022802 78 302 2.0 3.0 0.00 0.65 0.65 89 1012.8
20260906022702 78 277 2.0 3.0 0.00 0.65 0.65 89 1012.8
20260906022503 78 300 3.0 3.0 0.00 0.65 0.65 89 1012.7
20260906022403 78 278 2.0 3.0 0.00 0.65 0.65 89 1012.7
20260906022301 78 279 3.0 3.0 0.00 0.65 0.65 89 1012.7
20260906022202 78 277 2.0 3.0 0.00 0.65 0.65 89 1012.7
20260906021901 78 297 2.0 3.0 0.00 0.65 0.65 89 1012.6
20260906021802 78 281 2.0 3.0 0.00 0.65 0.65 89 1012.6
20260906021702 78 310 2.0 3.0 0.00 0.65 0.65 89 1012.6
20260906021602 78 297 2.0 3.0 0.00 0.65 0.65 89 1012.6
20260906021504 78 316 2.0 3.0 0.00 0.65 0.65 89 1012.5
20260906021403 78 287 2.0 3.0 0.00 0.65 0.65 89 1012.5
20260906021302 78 281 2.0 3.0 0.00 0.65 0.65 89 1012.5
20260906021202 78 296 1.0 3.0 0.00 0.65 0.65 88 1012.5
20260906021102 78 307 3.0 3.0 0.00 0.65 0.65 88 1012.4
20260906020902 78 279 2.0 3.0 0.00 0.65 0.65 88 1012.4
20260906020702 78 316 1.0 3.0 0.00 0.65 0.65 88 1012.3
20260906020602 78 271 2.0 3.0 0.00 0.65 0.65 88 1012.3
20260906020402 78 309 2.0 3.0 0.00 0.65 0.65 88 1012.3
20260906020301 78 300 2.0 3.0 0.00 0.65 0.65 88 1012.2
20260906020202 78 303 2.0 3.0 0.00 0.65 0.65 88 1012.3
20260906020104 78 295 2.0 3.0 0.00 0.65 0.65 88 1012.3
20260906020004 78 304 2.0 3.0 0.00 0.65 0.65 88 1012.3
20260906015903 78 295 2.0 3.0 0.00 0.65 0.65 88 1012.3
20260906015802 78 295 2.0 3.0 0.00 0.65 0.65 88 1012.3
20260906015702 78 301 2.0 3.0 0.00 0.65 0.65 88 1012.3
20260906015602 78 293 2.0 3.0 0.00 0.65 0.65 88 1012.4
20260906015504 78 284 2.0 3.0 0.00 0.65 0.65 88 1012.4
20260906015401 78 302 2.0 3.0 0.00 0.65 0.65 88 1012.4
20260906015305 78 317 2.0 3.0 0.00 0.65 0.65 88 1012.3
20260906015201 78 303 2.0 3.0 0.00 0.65 0.65 88 1012.5
20260906015102 78 333 1.0 3.0 0.00 0.65 0.65 88 1012.4
20260906015006 78 314 2.0 3.0 0.00 0.65 0.65 88 1012.4
20260906014903 78 296 2.0 3.0 0.00 0.65 0.65 88 1012.3
20260906014801 78 319 2.0 3.0 0.00 0.65 0.65 88 1012.3
20260906014600 78 321 2.0 3.0 0.00 0.65 0.65 88 1012.3
20260906014504 78 310 2.0 3.0 0.00 0.65 0.65 88 1012.2
20260906014402 78 316 0.0 3.0 0.00 0.65 0.65 88 1012.2
20260906014202 78 300 2.0 3.0 0.00 0.65 0.65 88 1012.1
20260906014101 78 324 0.0 3.0 0.00 0.65 0.65 88 1012.1
20260906013901 78 309 2.0 3.0 0.00 0.65 0.65 88 1012.1
20260906013702 78 296 2.0 3.0 0.00 0.65 0.65 88 1011.9
20260906013601 78 293 1.0 3.0 0.00 0.65 0.65 88 1012.0
20260906013504 79 305 2.0 3.0 0.00 0.65 0.65 88 1011.9
20260906013403 79 311 2.0 3.0 0.00 0.65 0.65 88 1011.9
20260906013301 79 302 3.0 3.0 0.00 0.65 0.65 88 1012.0
20260906013201 79 328 2.0 3.0 0.00 0.65 0.65 88 1011.9
20260906013102 78 295 2.0 3.0 0.00 0.65 0.65 88 1011.9
20260906013005 79 295 2.0 3.0 0.00 0.65 0.65 87 1011.9
20260906012902 79 333 0.0 3.0 0.00 0.65 0.65 87 1011.9
20260906012803 79 304 2.0 3.0 0.00 0.65 0.65 87 1011.9
20260906012702 79 326 1.0 3.0 0.00 0.65 0.65 87 1011.9
20260906012601 79 303 2.0 3.0 0.00 0.65 0.65 87 1011.9
20260906012504 79 283 2.0 3.0 0.00 0.65 0.65 87 1011.9
20260906012402 79 307 1.0 3.0 0.00 0.65 0.65 87 1011.9
20260906012301 79 314 2.0 3.0 0.00 0.65 0.65 87 1012.0
20260906012202 79 308 2.0 3.0 0.00 0.65 0.65 87 1012.0
20260906012102 79 262 0.0 3.0 0.00 0.65 0.65 87 1011.9
20260906012005 79 304 2.0 3.0 0.00 0.65 0.65 87 1011.9
20260906011802 79 286 0.0 3.0 0.00 0.65 0.65 87 1011.8
20260906011703 79 303 2.0 3.0 0.00 0.65 0.65 87 1011.8
20260906011602 79 294 2.0 3.0 0.00 0.65 0.65 87 1011.8
20260906011504 79 283 2.0 3.0 0.00 0.65 0.65 87 1011.6
20260906011402 79 312 1.0 3.0 0.00 0.65 0.65 87 1011.7
20260906011303 79 295 2.0 3.0 0.00 0.65 0.65 87 1011.7
20260906011201 79 314 2.0 3.0 0.00 0.65 0.65 87 1011.7
20260906011102 79 307 2.0 3.0 0.00 0.65 0.65 87 1011.7
20260906011004 79 316 2.0 3.0 0.00 0.65 0.65 87 1011.7
20260906010902 79 290 2.0 3.0 0.00 0.65 0.65 87 1011.7
20260906010802 79 314 2.0 3.0 0.00 0.65 0.65 87 1011.6
20260906010602 79 330 2.0 3.0 0.00 0.65 0.65 87 1011.6
20260906010402 79 303 2.0 3.0 0.00 0.65 0.65 87 1011.5
20260906010301 79 293 1.0 3.0 0.00 0.65 0.65 87 1011.5
20260906010202 79 316 2.0 3.0 0.00 0.65 0.65 87 1011.6
20260906010006 79 295 2.0 3.0 0.00 0.65 0.65 87 1011.5
20260906005902 79 314 2.0 3.0 0.00 0.65 0.65 86 1011.5
20260906005801 79 309 1.0 3.0 0.00 0.65 0.65 86 1011.5
20260906005701 79 314 2.0 3.0 0.00 0.65 0.65 86 1011.5
20260906005601 79 300 2.0 3.0 0.00 0.65 0.65 86 1011.5
20260906005503 79 295 2.0 3.0 0.00 0.65 0.65 86 1011.6
20260906005402 79 300 3.0 3.0 0.00 0.65 0.65 86 1011.5
20260906005306 79 307 2.0 3.0 0.00 0.65 0.65 86 1011.5
20260906005005 79 263 0.0 3.0 0.00 0.65 0.65 86 1011.5
20260906004904 79 280 2.0 3.0 0.00 0.65 0.65 86 1011.4
20260906004801 79 283 2.0 3.0 0.00 0.65 0.65 86 1011.4
20260906004603 79 291 2.0 3.0 0.00 0.65 0.65 86 1011.4
20260906004505 79 285 3.0 3.0 0.00 0.65 0.65 86 1011.4
20260906004403 79 312 2.0 3.0 0.00 0.65 0.65 85 1011.5
20260906004302 79 314 2.0 3.0 0.00 0.65 0.65 85 1011.4
20260906004202 79 309 1.0 3.0 0.00 0.65 0.65 85 1011.4
20260906004004 79 319 2.0 3.0 0.00 0.65 0.65 85 1011.4
20260906003901 79 293 2.0 3.0 0.00 0.65 0.65 85 1011.4
20260906003802 79 312 2.0 3.0 0.00 0.65 0.65 85 1011.4
20260906003701 79 301 2.0 3.0 0.00 0.65 0.65 85 1011.4
20260906003602 79 316 2.0 3.0 0.00 0.65 0.65 85 1011.5
20260906003503 79 303 2.0 3.0 0.00 0.65 0.65 85 1011.5
20260906003401 79 303 3.0 3.0 0.00 0.65 0.65 85 1011.4
20260906003303 79 329 2.0 3.0 0.00 0.65 0.65 85 1011.5
20260906003201 79 293 2.0 3.0 0.00 0.65 0.65 85 1011.4
20260906003103 79 295 2.0 3.0 0.00 0.65 0.65 85 1011.4
20260906003004 79 287 2.0 3.0 0.00 0.65 0.65 85 1011.3
20260906002802 79 287 0.0 3.0 0.00 0.65 0.65 85 1011.2
20260906002701 80 275 0.0 3.0 0.00 0.65 0.65 85 1011.3
20260906002401 80 292 2.0 3.0 0.00 0.65 0.65 84 1011.3
20260906002305 80 281 2.0 3.0 0.00 0.65 0.65 84 1011.4
20260906002201 80 297 2.0 3.0 0.00 0.65 0.65 84 1011.4
20260906002103 80 296 0.0 3.0 0.00 0.65 0.65 84 1011.4
20260906002004 80 302 1.0 3.0 0.00 0.65 0.65 84 1011.5
20260906001902 80 329 0.0 3.0 0.00 0.65 0.65 84 1011.5
20260906001802 80 286 2.0 3.0 0.00 0.65 0.65 84 1011.5
20260906001701 80 303 2.0 3.0 0.00 0.65 0.65 84 1011.5
20260906001601 80 256 0.0 3.0 0.00 0.65 0.65 84 1011.4
20260906001506 80 274 2.0 3.0 0.00 0.65 0.65 84 1011.4
20260906001401 80 300 0.0 3.0 0.00 0.65 0.65 83 1011.4
20260906001302 80 261 0.0 3.0 0.00 0.65 0.65 83 1011.5
20260906001202 80 279 2.0 3.0 0.00 0.65 0.65 83 1011.4
20260906001103 80 284 2.0 3.0 0.00 0.65 0.65 83 1011.4
20260906000902 80 284 1.0 3.0 0.00 0.65 0.65 83 1011.4
20260906000801 80 286 3.0 3.0 0.00 0.65 0.65 83 1011.4
20260906000702 80 293 0.0 3.0 0.00 0.65 0.65 83 1011.4
20260906000601 80 284 2.0 3.0 0.00 0.65 0.65 83 1011.2
20260906000504 80 270 2.0 3.0 0.00 0.65 0.65 82 1011.2
20260906000403 80 328 2.0 3.0 0.00 0.65 0.65 82 1011.2
20260906000303 80 304 2.0 3.0 0.00 0.65 0.65 82 1011.3
20260906000200 81 305 1.0 3.0 0.00 0.65 0.65 82 1011.1
20260906000004 81 288 2.0 3.0 0.00 0.65 0.65 82 1011.2
20260905235902 81 326 2.0 3.0 0.00 0.65 0.65 82 1011.3
20260905235802 81 274 3.0 3.0 0.00 0.65 0.65 82 1011.3
20260905235701 81 319 2.0 3.0 0.00 0.65 0.65 82 1011.4
20260905235601 81 321 3.0 3.0 0.00 0.65 0.65 82 1011.4
20260905235504 81 338 2.0 3.0 0.00 0.65 0.65 82 1011.4
20260905235202 81 333 2.0 3.0 0.00 0.65 0.65 82 1011.4
20260905235101 81 292 0.0 3.0 0.00 0.65 0.65 82 1011.4
20260905235003 81 345 2.0 3.0 0.00 0.65 0.65 82 1011.4
20260905234901 81 271 0.0 3.0 0.00 0.65 0.65 82 1011.4
20260905234802 81 287 0.0 3.0 0.00 0.65 0.65 81 1011.4
20260905234602 81 278 1.0 3.0 0.00 0.65 0.65 81 1011.5
20260905234504 81 311 0.0 3.0 0.00 0.65 0.65 81 1011.5
20260905234402 81 260 3.0 3.0 0.00 0.65 0.65 81 1011.5
20260905234301 81 287 0.0 3.0 0.00 0.65 0.65 81 1011.4
20260905234103 81 296 0.0 3.0 0.00 0.65 0.65 81 1011.6
20260905233903 81 262 1.0 3.0 0.00 0.65 0.65 81 1011.6
20260905233802 82 259 0.0 3.0 0.00 0.65 0.65 81 1011.6
20260905233702 82 212 0.0 4.0 0.00 0.65 0.65 81 1011.6
20260905233504 82 297 0.0 4.0 0.00 0.65 0.65 81 1011.5
20260905233403 82 296 0.0 4.0 0.00 0.65 0.65 80 1011.5
20260905233301 82 273 0.0 4.0 0.00 0.65 0.65 80 1011.5
20260905233201 82 277 2.0 4.0 0.00 0.65 0.65 80 1011.5
20260905233101 82 270 1.0 4.0 0.00 0.65 0.65 80 1011.6
20260905232902 82 297 2.0 4.0 0.00 0.65 0.65 80 1011.5
20260905232802 82 315 0.0 4.0 0.00 0.65 0.65 80 1011.5
20260905232503 82 233 0.0 3.0 0.00 0.65 0.65 80 1011.6
20260905232400 82 292 0.0 3.0 0.00 0.65 0.65 80 1011.6
20260905232301 82 303 2.0 4.0 0.00 0.65 0.65 80 1011.6
20260905232101 82 274 1.0 5.0 0.00 0.65 0.65 79 1011.5
20260905231902 83 281 2.0 5.0 0.00 0.65 0.65 79 1011.5
20260905231802 83 249 0.0 5.0 0.00 0.65 0.65 78 1011.5
20260905231702 83 128 0.0 5.0 0.00 0.65 0.65 79 1011.5
20260905231601 83 279 2.0 5.0 0.00 0.65 0.65 79 1011.6
20260905231503 83 258 2.0 5.0 0.00 0.65 0.65 79 1011.5
20260905231401 83 226 0.0 5.0 0.00 0.65 0.65 79 1011.6
20260905231302 83 275 3.0 5.0 0.00 0.65 0.65 79 1011.6
20260905231201 83 269 0.0 3.0 0.00 0.65 0.65 79 1011.6
20260905231101 84 307 3.0 3.0 0.00 0.65 0.65 78 1011.7
20260905231003 84 245 2.0 3.0 0.00 0.65 0.65 78 1011.7
20260905230901 84 241 0.0 4.0 0.00 0.65 0.65 78 1011.7
20260905230801 84 285 3.0 4.0 0.00 0.65 0.65 78 1011.7
20260905230702 84 287 3.0 4.0 0.00 0.65 0.65 78 1011.7
20260905230601 84 15 3.0 4.0 0.00 0.65 0.65 78 1011.6
20260905230503 84 277 0.0 4.0 0.00 0.65 0.65 77 1011.6
20260905230403 84 288 0.0 4.0 0.00 0.65 0.65 77 1011.6
20260905230301 84 262 0.0 4.0 0.00 0.65 0.65 77 1011.6
20260905230201 84 289 0.0 4.0 0.00 0.65 0.65 77 1011.6
20260905230101 84 333 0.0 4.0 0.00 0.65 0.65 77 1011.6
20260905230004 84 296 2.0 4.0 0.00 0.65 0.65 78 1011.6
20260905225901 84 263 0.0 2.0 0.00 0.65 0.65 78 1011.6
20260905225801 84 333 2.0 3.0 0.00 0.65 0.65 78 1011.6
20260905225601 84 340 0.0 3.0 0.00 0.65 0.65 77 1011.7
20260905225503 84 267 1.0 3.0 0.00 0.65 0.65 78 1011.6
20260905225400 84 319 0.0 3.0 0.00 0.65 0.65 78 1011.7
20260905225305 84 319 0.0 3.0 0.00 0.65 0.65 78 1011.7
20260905225201 84 319 0.0 3.0 0.00 0.65 0.65 78 1011.7
20260905225101 84 319 0.0 3.0 0.00 0.65 0.65 78 1011.7
20260905225003 83 306 0.0 3.0 0.00 0.65 0.65 78 1011.7
20260905224800 83 273 0.0 3.0 0.00 0.65 0.65 78 1011.7
20260905224600 83 256 0.0 3.0 0.00 0.65 0.65 80 1011.6
20260905224502 83 311 0.0 3.0 0.00 0.65 0.65 80 1011.6
20260905224400 83 300 0.0 3.0 0.00 0.65 0.65 80 1011.6
20260905224300 83 287 2.0 3.0 0.00 0.65 0.65 79 1011.5
20260905224200 83 270 0.0 3.0 0.00 0.65 0.65 79 1011.6
20260905224101 83 295 2.0 3.0 0.00 0.65 0.65 79 1011.6
20260905224003 83 319 1.0 3.0 0.00 0.65 0.65 79 1011.6
20260905223800 84 326 0.0 3.0 0.00 0.65 0.65 79 1011.6
20260905223701 84 292 1.0 3.0 0.00 0.65 0.65 79 1011.6
20260905223502 84 311 2.0 3.0 0.00 0.65 0.65 79 1011.5
20260905223400 84 317 1.0 2.0 0.00 0.65 0.65 79 1011.6
20260905223300 84 285 1.0 3.0 0.00 0.65 0.65 79 1011.6
20260905223200 84 285 0.0 3.0 0.00 0.65 0.65 79 1011.6
20260905223100 84 282 0.0 3.0 0.00 0.65 0.65 79 1011.6
20260905223003 84 306 0.0 3.0 0.00 0.65 0.65 79 1011.6
20260905222901 84 296 0.0 3.0 0.00 0.65 0.65 78 1011.6
20260905222800 84 311 2.0 3.0 0.00 0.65 0.65 77 1011.5
20260905222701 84 82 0.0 3.0 0.00 0.65 0.65 77 1011.6
20260905222600 84 262 0.0 3.0 0.00 0.65 0.65 78 1011.6
20260905222503 84 281 0.0 3.0 0.00 0.65 0.65 78 1011.6
20260905222400 84 299 2.0 3.0 0.00 0.65 0.65 77 1011.5
20260905222301 84 277 0.0 3.0 0.00 0.65 0.65 78 1011.5
20260905222200 84 314 0.0 3.0 0.00 0.65 0.65 77 1011.5
20260905222100 84 279 0.0 3.0 0.00 0.65 0.65 77 1011.6
20260905222004 84 324 0.0 3.0 0.00 0.65 0.65 77 1011.5
20260905221901 84 302 2.0 3.0 0.00 0.65 0.65 78 1011.5
20260905221801 84 309 2.0 3.0 0.00 0.65 0.65 78 1011.6
20260905221701 84 331 0.0 3.0 0.00 0.65 0.65 78 1011.6
20260905221601 84 313 1.0 3.0 0.00 0.65 0.65 77 1011.6
20260905221502 84 308 0.0 3.0 0.00 0.65 0.65 77 1011.7
20260905221400 84 326 2.0 3.0 0.00 0.65 0.65 76 1011.7
20260905221300 84 319 2.0 3.0 0.00 0.65 0.65 77 1011.7
20260905221200 84 305 1.0 3.0 0.00 0.65 0.65 77 1011.8
20260905221101 84 356 2.0 3.0 0.00 0.65 0.65 77 1011.8
20260905220800 84 321 2.0 3.0 0.00 0.65 0.65 75 1011.7
20260905220701 84 328 1.0 3.0 0.00 0.65 0.65 75 1011.6
20260905220600 84 336 2.0 3.0 0.00 0.65 0.65 75 1011.7
20260905220503 84 339 0.0 3.0 0.00 0.65 0.65 76 1011.7
20260905220401 84 306 2.0 3.0 0.00 0.65 0.65 76 1011.7
20260905220301 84 264 1.0 3.0 0.00 0.65 0.65 76 1011.8
20260905220201 85 289 0.0 3.0 0.00 0.65 0.65 75 1011.7
20260905220100 85 296 0.0 3.0 0.00 0.65 0.65 74 1011.7
20260905220004 85 286 2.0 3.0 0.00 0.65 0.65 72 1011.9
20260905215800 84 8 2.0 3.0 0.00 0.65 0.65 73 1011.9
20260905215701 84 355 2.0 3.0 0.00 0.65 0.65 77 1012.0
20260905215600 84 338 2.0 3.0 0.00 0.65 0.65 77 1012.0
20260905215401 84 330 2.0 3.0 0.00 0.65 0.65 78 1012.0
20260905215300 84 330 1.0 3.0 0.00 0.65 0.65 78 1012.0
20260905215201 84 333 2.0 3.0 0.00 0.65 0.65 78 1012.0
20260905215100 84 329 2.0 3.0 0.00 0.65 0.65 78 1012.1
20260905215004 84 336 2.0 3.0 0.00 0.65 0.65 79 1012.1
20260905214900 84 340 2.0 3.0 0.00 0.65 0.65 78 1012.0
20260905214801 85 304 0.0 3.0 0.00 0.65 0.65 78 1012.1
20260905214701 84 328 1.0 3.0 0.00 0.65 0.65 78 1012.2
20260905214601 84 348 3.0 3.0 0.00 0.65 0.65 78 1012.2
20260905214502 84 359 2.0 3.0 0.00 0.65 0.65 78 1012.2
20260905214401 85 338 3.0 3.0 0.00 0.65 0.65 78 1012.2
20260905214300 85 335 3.0 3.0 0.00 0.65 0.65 77 1012.3
20260905214200 84 4 3.0 3.0 0.00 0.65 0.65 77 1012.2
20260905214100 84 19 2.0 3.0 0.00 0.65 0.65 77 1012.1
20260905214004 85 345 2.0 3.0 0.00 0.65 0.65 77 1012.1
20260905213901 84 1 1.0 3.0 0.00 0.65 0.65 77 1012.1
20260905213801 84 343 1.0 4.0 0.00 0.65 0.65 78 1012.1
20260905213701 84 293 0.0 4.0 0.00 0.65 0.65 77 1012.1
20260905213601 84 336 2.0 4.0 0.00 0.65 0.65 77 1012.0
20260905213503 84 1 0.0 4.0 0.00 0.65 0.65 77 1012.0
20260905213400 84 325 0.0 4.0 0.00 0.65 0.65 79 1012.0
20260905213300 84 268 1.0 4.0 0.00 0.65 0.65 81 1012.1
20260905213201 84 354 2.0 4.0 0.00 0.65 0.65 81 1012.0
20260905213100 84 326 3.0 4.0 0.00 0.65 0.65 81 1012.1
20260905213003 84 347 3.0 4.0 0.00 0.65 0.65 81 1012.1
20260905212900 84 27 2.0 4.0 0.00 0.65 0.65 81 1012.1
20260905212800 84 329 3.0 4.0 0.00 0.65 0.65 81 1012.2
20260905212700 84 282 1.0 4.0 0.00 0.65 0.65 81 1012.1
20260905212600 84 336 0.0 4.0 0.00 0.65 0.65 82 1012.2
20260905212503 84 333 2.0 4.0 0.00 0.65 0.65 82 1012.2
20260905212401 84 31 0.0 4.0 0.00 0.65 0.65 82 1012.2
20260905212300 83 249 1.0 4.0 0.00 0.65 0.65 80 1012.2
20260905212200 84 297 4.0 4.0 0.00 0.65 0.65 81 1012.2
20260905212100 84 340 3.0 4.0 0.01 0.65 0.65 82 1012.1
20260905212004 84 324 3.0 4.0 0.01 0.65 0.65 81 1012.1
20260905211900 84 334 3.0 4.0 0.01 0.65 0.65 81 1012.1
20260905211801 84 335 4.0 4.0 0.01 0.65 0.65 81 1012.0
20260905211600 84 347 3.0 4.0 0.01 0.65 0.65 80 1012.1
20260905211503 84 338 2.0 4.0 0.01 0.65 0.65 80 1012.1
20260905211400 84 339 2.0 4.0 0.01 0.65 0.65 80 1012.0
20260905211301 84 359 2.0 4.0 0.01 0.65 0.65 82 1012.1
20260905211200 83 350 3.0 4.0 0.01 0.65 0.65 83 1012.0
20260905211100 83 354 3.0 4.0 0.02 0.65 0.65 82 1012.0
20260905211003 83 357 3.0 4.0 0.03 0.65 0.65 85 1012.0
20260905210901 83 356 3.0 4.0 0.03 0.65 0.65 85 1012.0
20260905210800 82 1 3.0 4.0 0.04 0.65 0.65 85 1012.1
20260905210701 82 352 2.0 4.0 0.04 0.65 0.65 86 1012.0
20260905210502 82 346 3.0 4.0 0.08 0.65 0.65 86 1011.9
20260905210400 82 335 3.0 4.0 0.10 0.65 0.65 87 1011.9
20260905210301 82 340 2.0 4.0 0.14 0.65 0.65 87 1011.8
20260905210201 82 326 2.0 4.0 0.20 0.65 0.65 88 1011.8
20260905210101 82 354 0.0 4.0 0.24 0.65 0.65 88 1011.9
20260905205901 82 326 2.0 4.0 0.36 0.65 0.65 90 1011.8
20260905205800 81 324 1.0 4.0 0.40 0.65 0.65 90 1011.8
20260905205600 81 319 2.0 4.0 0.49 0.65 0.65 91 1011.9
20260905205503 81 304 1.0 4.0 0.54 0.65 0.65 91 1011.8
20260905205400 81 302 0.0 4.0 0.57 0.65 0.65 91 1011.8
20260905205200 80 307 2.0 4.0 0.62 0.65 0.65 92 1011.9
20260905205101 80 310 2.0 4.0 0.62 0.65 0.65 92 1011.9
20260905205003 80 317 3.0 4.0 0.63 0.65 0.65 92 1012.0
20260905204900 80 302 3.0 4.0 0.64 0.65 0.65 92 1012.0
20260905204801 80 307 3.0 4.0 0.64 0.65 0.65 92 1012.0
20260905204701 79 316 3.0 4.0 0.65 0.65 0.65 92 1012.1
20260905204601 79 341 3.0 5.0 0.65 0.65 0.65 92 1012.2
20260905204504 79 299 3.0 5.0 0.65 0.65 0.65 92 1012.2
20260905204400 79 247 3.0 5.0 0.65 0.65 0.65 93 1012.2
20260905204300 79 281 3.0 5.0 0.65 0.65 0.65 91 1012.2
20260905204200 78 257 3.0 5.0 0.65 0.65 0.65 91 1012.3
20260905204100 78 274 3.0 5.0 0.65 0.65 0.65 91 1012.3
20260905204003 78 268 3.0 5.0 0.65 0.65 0.65 92 1012.3
20260905203901 78 281 2.0 5.0 0.65 0.65 0.65 91 1012.2
20260905203659 78 275 3.0 4.0 0.65 0.65 0.65 92 1012.2
20260905203601 78 278 1.0 4.0 0.65 0.65 0.65 92 1012.1
20260905203502 78 298 3.0 4.0 0.65 0.65 0.65 92 1012.1
20260905203300 78 302 3.0 4.0 0.65 0.65 0.65 92 1012.2
20260905203100 77 342 2.0 4.0 0.65 0.65 0.65 91 1012.2
20260905203004 77 333 3.0 4.0 0.65 0.65 0.65 91 1012.1
20260905202900 77 338 1.0 4.0 0.65 0.65 0.65 91 1012.2
20260905202800 77 312 2.0 4.0 0.65 0.65 0.65 91 1012.2
20260905202701 77 6 3.0 4.0 0.65 0.65 0.65 90 1012.1
20260905202600 77 359 3.0 4.0 0.65 0.65 0.65 90 1012.1
20260905202503 76 6 3.0 4.0 0.65 0.65 0.65 91 1012.2
20260905202300 76 317 2.0 4.0 0.65 0.65 0.65 90 1012.2
20260905202201 76 330 3.0 3.0 0.65 0.65 0.65 90 1012.2
20260905202101 76 345 2.0 3.0 0.64 0.64 0.64 90 1012.3
20260905202003 76 316 2.0 3.0 0.64 0.64 0.64 89 1012.3
20260905201902 76 316 1.0 3.0 0.64 0.64 0.64 89 1012.4
20260905201801 75 319 2.0 3.0 0.64 0.64 0.64 89 1012.5
20260905201700 76 302 2.0 3.0 0.64 0.64 0.64 89 1012.5
20260905201601 75 293 2.0 3.0 0.64 0.64 0.64 88 1012.5
20260905201503 75 293 2.0 3.0 0.64 0.64 0.64 88 1012.6
20260905201300 76 276 2.0 4.0 0.64 0.64 0.64 88 1012.6
20260905201200 76 253 3.0 4.0 0.64 0.64 0.64 88 1012.7
20260905201101 75 316 2.0 4.0 0.63 0.63 0.63 88 1012.7
20260905200800 75 268 0.0 5.0 0.61 0.61 0.61 87 1012.6
20260905200700 75 326 0.0 5.0 0.61 0.61 0.61 87 1012.8
20260905200601 75 309 0.0 5.0 0.59 0.59 0.59 86 1012.7
20260905200359 76 254 2.0 6.0 0.55 0.55 0.55 85 1012.8
20260905200300 76 261 4.0 6.0 0.51 0.51 0.51 85 1012.9
20260905200200 77 295 3.0 6.0 0.45 0.45 0.45 85 1012.9
20260905200101 77 295 3.0 6.0 0.41 0.41 0.41 85 1013.0
20260905200007 77 268 2.0 6.0 0.34 0.34 0.34 84 1013.0
20260905195901 78 316 2.0 6.0 0.29 0.29 0.29 84 1013.1
20260905195800 78 252 4.0 9.0 0.25 0.25 0.25 83 1013.1
20260905195701 78 295 2.0 9.0 0.19 0.19 0.19 83 1013.1
20260905195602 79 270 3.0 9.0 0.16 0.16 0.16 82 1013.1
20260905195400 80 314 3.0 9.0 0.06 0.06 0.06 82 1013.2
20260905195301 80 302 3.0 9.0 0.04 0.04 0.04 81 1013.1
20260905195201 80 295 4.0 9.0 0.03 0.03 0.03 81 1013.1
20260905195004 81 294 6.0 9.0 0.02 0.02 0.02 79 1013.2
20260905194901 81 303 6.0 9.0 0.01 0.01 0.01 79 1013.0
20260905194801 82 286 5.0 12.0 0.01 0.01 0.01 77 1013.0
20260905194701 82 265 7.0 14.0 0.00 0.00 0.00 76 1013.0
20260905194601 83 303 4.0 14.0 0.00 0.00 0.00 75 1013.0
20260905194402 84 308 7.0 14.0 0.00 0.00 0.00 73 1013.0
20260905194201 85 305 6.0 14.0 0.00 0.00 0.00 71 1013.0
20260905194101 86 307 4.0 14.0 0.00 0.00 0.00 70 1013.1
20260905194004 86 254 6.0 14.0 0.00 0.00 0.00 69 1013.1
20260905193901 87 271 4.0 14.0 0.00 0.00 0.00 68 1013.0
20260905193801 88 282 9.0 14.0 0.00 0.00 0.00 65 1013.0
20260905193701 88 270 4.0 8.0 0.00 0.00 0.00 65 1013.0
20260905193601 88 324 6.0 8.0 0.00 0.00 0.00 64 1012.9
20260905193503 88 327 6.0 8.0 0.00 0.00 0.00 64 1013.0
20260905193402 88 334 6.0 8.0 0.00 0.00 0.00 64 1013.0
20260905193301 89 338 5.0 8.0 0.00 0.00 0.00 64 1012.9
20260905193203 89 340 5.0 8.0 0.00 0.00 0.00 63 1012.9
20260905193101 89 346 6.0 8.0 0.00 0.00 0.00 63 1012.8
20260905193006 89 333 4.0 8.0 0.00 0.00 0.00 64 1012.8
20260905192901 89 335 5.0 8.0 0.00 0.00 0.00 63 1013.0
20260905192802 90 331 5.0 7.0 0.00 0.00 0.00 63 1013.0
20260905192702 90 338 6.0 7.0 0.00 0.00 0.00 63 1012.9
20260905192503 90 329 5.0 7.0 0.00 0.00 0.00 62 1013.0
20260905192402 90 321 5.0 7.0 0.00 0.00 0.00 61 1013.0
20260905192301 90 327 6.0 7.0 0.00 0.00 0.00 60 1013.2
20260905192201 91 339 7.0 8.0 0.00 0.00 0.00 60 1013.1
20260905192100 91 350 7.0 8.0 0.00 0.00 0.00 59 1013.1
20260905192004 91 4 5.0 12.0 0.00 0.00 0.00 60 1013.0
20260905191901 91 337 6.0 12.0 0.00 0.00 0.00 59 1013.0
20260905191801 91 357 2.0 12.0 0.00 0.00 0.00 59 1013.0
20260905191702 91 301 4.0 12.0 0.00 0.00 0.00 58 1013.0
20260905191602 92 310 6.0 12.0 0.00 0.00 0.00 59 1013.0
20260905191505 92 332 5.0 12.0 0.00 0.00 0.00 58 1013.1
20260905191401 92 317 5.0 12.0 0.00 0.00 0.00 59 1013.0
20260905191202 92 336 6.0 12.0 0.00 0.00 0.00 58 1013.0
20260905191100 92 351 11.0 11.0 0.00 0.00 0.00 58 1013.1
20260905191005 92 325 5.0 8.0 0.00 0.00 0.00 59 1013.1
20260905190901 92 341 3.0 8.0 0.00 0.00 0.00 58 1013.0
20260905190802 92 341 3.0 10.0 0.00 0.00 0.00 58 1013.0
20260905190701 93 334 5.0 10.0 0.00 0.00 0.00 58 1013.2
20260905190502 92 332 7.0 10.0 0.00 0.00 0.00 58 1013.2
20260905190302 92 338 5.0 10.0 0.00 0.00 0.00 57 1013.1
20260905190202 92 326 4.0 10.0 0.00 0.00 0.00 57 1013.1
20260905190004 92 8 5.0 10.0 0.00 0.00 0.00 57 1013.1
20260905185903 92 353 6.0 10.0 0.00 0.00 0.00 57 1013.1
20260905185801 92 340 5.0 8.0 0.00 0.00 0.00 58 1013.2
20260905185702 93 1 6.0 8.0 0.00 0.00 0.00 58 1013.2
20260905185602 92 340 6.0 7.0 0.00 0.00 0.00 61 1013.2
20260905185503 93 2 4.0 7.0 0.00 0.00 0.00 58 1013.2
20260905185401 93 331 3.0 7.0 0.00 0.00 0.00 60 1013.2
20260905185301 93 336 5.0 7.0 0.00 0.00 0.00 60 1013.3
20260905185202 92 4 6.0 7.0 0.00 0.00 0.00 62 1013.2
20260905185102 92 347 5.0 7.0 0.00 0.00 0.00 61 1013.1
20260905184902 92 342 4.0 6.0 0.00 0.00 0.00 62 1013.1
20260905184801 91 348 4.0 6.0 0.00 0.00 0.00 63 1013.1
20260905184701 91 5 6.0 6.0 0.00 0.00 0.00 64 1013.0
20260905184602 90 6 5.0 6.0 0.00 0.00 0.00 63 1013.1
20260905184402 90 1 0.0 5.0 0.00 0.00 0.00 65 1012.9
20260905184203 89 296 2.0 7.0 0.00 0.00 0.00 66 1013.1
20260905184102 89 338 3.0 7.0 0.00 0.00 0.00 66 1013.0
20260905184004 89 359 0.0 7.0 0.00 0.00 0.00 66 1013.1
20260905183901 89 338 0.0 7.0 0.00 0.00 0.00 66 1013.1
20260905183703 88 323 3.0 7.0 0.00 0.00 0.00 67 1013.1
20260905183504 88 356 4.0 7.0 0.00 0.00 0.00 68 1013.0
20260905183401 88 355 5.0 7.0 0.00 0.00 0.00 72 1013.1
20260905183301 88 338 3.0 4.0 0.00 0.00 0.00 71 1013.1
20260905183101 87 43 0.0 4.0 0.00 0.00 0.00 73 1013.2
20260905183005 87 338 1.0 4.0 0.00 0.00 0.00 72 1013.2
20260905182901 86 67 0.0 4.0 0.00 0.00 0.00 72 1013.3
20260905182802 86 355 2.0 4.0 0.00 0.00 0.00 75 1013.2
20260905182702 86 342 3.0 4.0 0.00 0.00 0.00 75 1013.4
20260905182504 85 1 1.0 4.0 0.00 0.00 0.00 75 1013.4
20260905182402 85 298 0.0 4.0 0.00 0.00 0.00 77 1013.4
20260905182301 85 304 1.0 4.0 0.00 0.00 0.00 77 1013.4
20260905182201 85 328 3.0 4.0 0.00 0.00 0.00 77 1013.5
20260905181900 85 326 2.0 5.0 0.00 0.00 0.00 77 1013.4
20260905181802 85 340 3.0 5.0 0.00 0.00 0.00 76 1013.4
20260905181602 85 338 4.0 5.0 0.00 0.00 0.00 74 1013.4
20260905181402 87 325 3.0 5.0 0.00 0.00 0.00 73 1013.4
20260905181301 87 331 4.0 5.0 0.00 0.00 0.00 72 1013.3
20260905181201 88 351 4.0 5.0 0.00 0.00 0.00 70 1013.3
20260905181101 88 12 5.0 5.0 0.00 0.00 0.00 68 1013.4
20260905181004 88 341 2.0 7.0 0.00 0.00 0.00 68 1013.4
20260905180901 89 355 5.0 7.0 0.00 0.00 0.00 69 1013.5
20260905180803 89 350 2.0 7.0 0.00 0.00 0.00 68 1013.5
20260905180701 89 338 4.0 7.0 0.00 0.00 0.00 66 1013.5
20260905180602 89 338 3.0 7.0 0.00 0.00 0.00 66 1013.5
20260905180403 91 330 3.0 7.0 0.00 0.00 0.00 65 1013.5
20260905180302 91 339 3.0 7.0 0.00 0.00 0.00 67 1013.5
20260905180201 91 355 4.0 7.0 0.00 0.00 0.00 67 1013.4
20260905175800 88 350 2.0 5.0 0.00 0.00 0.00 69 1013.6
20260905175701 88 348 3.0 5.0 0.00 0.00 0.00 70 1013.7
20260905175503 88 114 4.0 5.0 0.00 0.00 0.00 70 1013.7
20260905175401 88 51 2.0 5.0 0.00 0.00 0.00 72 1013.8
20260905175300 88 360 3.0 6.0 0.00 0.00 0.00 72 1013.8
20260905175203 87 41 1.0 6.0 0.00 0.00 0.00 72 1013.8
20260905175100 87 105 3.0 6.0 0.00 0.00 0.00 72 1013.9
20260905175004 88 53 2.0 6.0 0.00 0.00 0.00 72 1013.9
20260905174801 88 89 3.0 6.0 0.00 0.00 0.00 73 1014.1
20260905174701 87 325 4.0 6.0 0.00 0.00 0.00 74 1014.0
20260905174600 87 303 2.0 6.0 0.00 0.00 0.00 74 1014.0
20260905174504 87 327 1.0 6.0 0.00 0.00 0.00 74 1014.0
20260905174402 87 354 2.0 6.0 0.00 0.00 0.00 74 1014.0
20260905174301 87 110 3.0 5.0 0.00 0.00 0.00 75 1014.1
20260905174200 86 133 0.0 5.0 0.00 0.00 0.00 75 1013.9
20260905174100 86 4 3.0 5.0 0.00 0.00 0.00 76 1014.1
20260905174004 86 326 2.0 5.0 0.00 0.00 0.00 76 1014.0
20260905173901 86 13 0.0 5.0 0.00 0.00 0.00 76 1014.1
20260905173800 85 8 3.0 4.0 0.00 0.00 0.00 76 1014.1
20260905173700 85 108 2.0 4.0 0.00 0.00 0.00 76 1014.0
20260905173601 85 54 1.0 4.0 0.00 0.00 0.00 76 1014.0
20260905173401 86 15 1.0 4.0 0.00 0.00 0.00 76 1014.1
20260905173300 85 354 4.0 4.0 0.00 0.00 0.00 77 1014.2
20260905173201 85 95 2.0 4.0 0.00 0.00 0.00 77 1014.2
20260905173100 85 36 2.0 3.0 0.00 0.00 0.00 77 1014.4
20260905173004 85 331 1.0 3.0 0.00 0.00 0.00 78 1014.2
20260905172900 85 5 3.0 4.0 0.00 0.00 0.00 78 1014.3
20260905172800 85 263 2.0 4.0 0.00 0.00 0.00 78 1014.3
20260905172700 84 352 0.0 4.0 0.00 0.00 0.00 78 1014.3
20260905172600 84 291 2.0 4.0 0.00 0.00 0.00 78 1014.3
20260905172503 84 359 3.0 4.0 0.00 0.00 0.00 77 1014.2
20260905172300 84 303 2.0 4.0 0.00 0.00 0.00 77 1014.2
20260905172200 85 316 0.0 4.0 0.00 0.00 0.00 77 1014.3
20260905172100 85 39 0.0 4.0 0.00 0.00 0.00 77 1014.2
20260905172004 85 334 2.0 3.0 0.00 0.00 0.00 77 1014.3
20260905171901 85 328 1.0 3.0 0.00 0.00 0.00 77 1014.3
20260905171801 85 309 1.0 3.0 0.00 0.00 0.00 77 1014.3
20260905171701 85 1 3.0 3.0 0.00 0.00 0.00 77 1014.3
20260905171600 85 11 2.0 3.0 0.00 0.00 0.00 77 1014.3
20260905171504 85 15 1.0 3.0 0.00 0.00 0.00 77 1014.3
20260905171400 85 345 1.0 3.0 0.00 0.00 0.00 77 1014.3
20260905171259 85 330 0.0 3.0 0.00 0.00 0.00 77 1014.3
20260905171100 85 347 0.0 3.0 0.00 0.00 0.00 77 1014.3
20260905171004 85 70 0.0 3.0 0.00 0.00 0.00 77 1014.3
20260905170901 85 316 0.0 4.0 0.00 0.00 0.00 77 1014.3
20260905170800 85 307 0.0 4.0 0.00 0.00 0.00 77 1014.3
20260905170502 85 17 0.0 4.0 0.00 0.00 0.00 77 1014.4
20260905170400 85 322 0.0 4.0 0.00 0.00 0.00 77 1014.4
20260905170300 85 239 2.0 4.0 0.00 0.00 0.00 77 1014.4
20260905170202 85 27 1.0 4.0 0.00 0.00 0.00 77 1014.5
20260905170059 85 34 0.0 4.0 0.00 0.00 0.00 77 1014.5
20260905170004 85 113 0.0 4.0 0.00 0.00 0.00 77 1014.5
20260905165900 85 359 1.0 4.0 0.00 0.00 0.00 77 1014.5
20260905165600 85 1 2.0 4.0 0.00 0.00 0.00 77 1014.5
20260905165503 85 352 2.0 4.0 0.00 0.00 0.00 77 1014.6
20260905165400 85 49 2.0 4.0 0.00 0.00 0.00 77 1014.6
20260905165301 85 297 2.0 4.0 0.00 0.00 0.00 76 1014.5
20260905165200 85 336 0.0 4.0 0.00 0.00 0.00 76 1014.5
20260905165100 86 39 2.0 4.0 0.00 0.00 0.00 75 1014.6
20260905165003 86 346 3.0 4.0 0.00 0.00 0.00 75 1014.5
20260905164900 85 109 0.0 4.0 0.00 0.00 0.00 73 1014.5
20260905164800 85 32 0.0 4.0 0.00 0.00 0.00 70 1014.6
20260905164700 85 6 0.0 4.0 0.00 0.00 0.00 71 1014.6
20260905164600 85 347 2.0 4.0 0.00 0.00 0.00 71 1014.5
20260905164504 85 321 3.0 4.0 0.00 0.00 0.00 71 1014.6
20260905164400 85 323 3.0 4.0 0.00 0.00 0.00 71 1014.6
20260905164300 85 331 3.0 4.0 0.00 0.00 0.00 71 1014.6
20260905164201 85 340 3.0 4.0 0.00 0.00 0.00 71 1014.7
20260905164100 85 352 3.0 4.0 0.00 0.00 0.00 71 1014.7
20260905164004 85 355 0.0 4.0 0.00 0.00 0.00 71 1014.8
20260905163901 85 340 1.0 4.0 0.00 0.00 0.00 71 1014.8
20260905163701 85 325 2.0 5.0 0.00 0.00 0.00 72 1014.9
20260905163600 85 330 2.0 6.0 0.00 0.00 0.00 72 1014.8
20260905163503 85 327 3.0 6.0 0.00 0.00 0.00 72 1014.7
20260905163401 85 305 3.0 6.0 0.00 0.00 0.00 72 1014.8
20260905163300 85 357 3.0 6.0 0.00 0.00 0.00 72 1014.8
20260905163100 85 335 3.0 6.0 0.00 0.00 0.00 72 1014.9
20260905162902 85 333 3.0 6.0 0.00 0.00 0.00 72 1014.7
20260905162800 85 338 4.0 6.0 0.00 0.00 0.00 71 1014.8
20260905162600 85 354 3.0 8.0 0.00 0.00 0.00 72 1014.9
20260905162503 85 328 4.0 8.0 0.00 0.00 0.00 72 1014.8
20260905162359 85 340 5.0 8.0 0.00 0.00 0.00 72 1014.9
20260905162300 86 335 3.0 8.0 0.00 0.00 0.00 71 1014.8
20260905162059 86 335 5.0 8.0 0.00 0.00 0.00 71 1014.8
20260905162003 86 326 4.0 8.0 0.00 0.00 0.00 71 1014.9
20260905161900 86 350 5.0 8.0 0.00 0.00 0.00 70 1014.8
20260905161801 86 360 5.0 8.0 0.00 0.00 0.00 71 1014.8
20260905161659 86 1 6.0 7.0 0.00 0.00 0.00 71 1014.8
20260905161601 86 327 4.0 7.0 0.00 0.00 0.00 71 1014.8
20260905161401 86 335 3.0 7.0 0.00 0.00 0.00 71 1014.8
20260905161100 87 5 3.0 8.0 0.00 0.00 0.00 70 1014.8
20260905161004 87 310 2.0 8.0 0.00 0.00 0.00 70 1014.8
20260905160900 87 330 3.0 8.0 0.00 0.00 0.00 70 1014.9
20260905160801 87 339 7.0 8.0 0.00 0.00 0.00 70 1014.9
20260905160700 86 333 4.0 8.0 0.00 0.00 0.00 71 1014.8
20260905160600 86 347 5.0 8.0 0.00 0.00 0.00 72 1014.8
20260905160401 86 340 3.0 8.0 0.00 0.00 0.00 72 1014.9
20260905160300 86 340 4.0 5.0 0.00 0.00 0.00 74 1015.0
20260905160100 85 333 2.0 5.0 0.00 0.00 0.00 74 1014.9
20260905155859 85 17 4.0 5.0 0.00 0.00 0.00 75 1015.0
20260905155800 85 333 3.0 5.0 0.00 0.00 0.00 75 1014.9
20260905155700 84 6 4.0 5.0 0.00 0.00 0.00 75 1014.9
20260905155600 84 6 2.0 5.0 0.00 0.00 0.00 75 1014.9
20260905155503 84 330 3.0 5.0 0.00 0.00 0.00 75 1014.9
20260905155400 84 316 4.0 5.0 0.00 0.00 0.00 74 1014.8
20260905155300 84 325 4.0 5.0 0.00 0.00 0.00 75 1014.8
20260905155200 84 338 3.0 5.0 0.00 0.00 0.00 74 1014.9
20260905155004 84 18 4.0 5.0 0.00 0.00 0.00 75 1014.9
20260905154901 84 341 2.0 5.0 0.00 0.00 0.00 75 1014.9
20260905154800 84 328 3.0 5.0 0.00 0.00 0.00 74 1014.8
20260905154659 84 341 3.0 4.0 0.00 0.00 0.00 75 1014.9
20260905154504 84 331 2.0 4.0 0.00 0.00 0.00 75 1014.9
20260905154401 84 340 2.0 4.0 0.00 0.00 0.00 75 1014.8
20260905154300 84 334 3.0 4.0 0.00 0.00 0.00 75 1014.8
20260905154200 84 4 3.0 4.0 0.00 0.00 0.00 76 1014.8
20260905154101 84 336 2.0 4.0 0.00 0.00 0.00 76 1014.8
20260905153900 84 343 3.0 3.0 0.00 0.00 0.00 76 1014.8
20260905153800 84 321 2.0 3.0 0.00 0.00 0.00 76 1014.8
20260905153503 84 309 2.0 3.0 0.00 0.00 0.00 76 1014.9
20260905153400 84 296 0.0 3.0 0.00 0.00 0.00 76 1015.0
20260905153300 84 272 0.0 3.0 0.00 0.00 0.00 75 1015.0
20260905153200 84 315 0.0 3.0 0.00 0.00 0.00 75 1015.1
20260905153059 84 305 0.0 3.0 0.00 0.00 0.00 75 1015.1
20260905153004 84 285 0.0 3.0 0.00 0.00 0.00 75 1015.1
20260905152800 84 311 0.0 3.0 0.00 0.00 0.00 75 1015.2
20260905152600 84 301 1.0 3.0 0.00 0.00 0.00 75 1015.1
20260905152503 84 343 0.0 3.0 0.00 0.00 0.00 76 1015.2
20260905152400 84 331 1.0 4.0 0.00 0.00 0.00 77 1015.1
20260905152301 83 335 0.0 4.0 0.00 0.00 0.00 77 1015.2
20260905152201 83 354 0.0 4.0 0.00 0.00 0.00 77 1015.1
20260905151900 83 326 2.0 4.0 0.00 0.00 0.00 77 1015.0
20260905151800 83 289 3.0 4.0 0.00 0.00 0.00 76 1015.1
20260905151700 83 308 2.0 4.0 0.00 0.00 0.00 76 1015.1
20260905151601 83 292 0.0 4.0 0.00 0.00 0.00 76 1015.1
20260905151503 83 350 2.0 4.0 0.00 0.00 0.00 76 1015.1
20260905151401 83 317 3.0 4.0 0.00 0.00 0.00 77 1015.1
20260905151200 83 229 0.0 4.0 0.00 0.00 0.00 77 1015.1